CW1648 Weather Reports


time (UTC)temp
C
wind
direction
speed
KPH
gust
KPH
rain 1hr
cm
rain 24hr
cm
rain mn
cm
humidity
%
barometer
mb
20260904061832 23 245 0.0 0.0 0.00 0.58 0.03 95 1008.4
20260904061732 23 245 0.0 0.0 0.00 0.58 0.03 95 1008.4
20260904061631 23 245 0.0 0.0 0.00 0.58 0.03 95 1008.4
20260904061534 23 245 0.0 0.0 0.00 0.58 0.03 95 1008.6
20260904061531 23 245 0.0 0.0 0.00 0.58 0.03 95 1008.4
20260904061430 23 245 0.0 0.0 0.00 0.58 0.03 95 1008.4
20260904061341 23 245 0.0 0.0 0.00 0.61 0.03 95 1008.5
20260904061331 23 245 0.0 0.0 0.00 0.61 0.03 95 1008.5
20260904061220 23 245 0.0 0.0 0.00 0.66 0.03 95 1008.5
20260904061214 23 245 0.0 0.0 0.00 0.64 0.03 95 1008.5
20260904061206 23 245 0.0 0.0 0.00 0.64 0.03 95 1008.5
20260904061019 23 245 0.0 0.0 0.00 0.64 0.03 95 1008.7
20260904060836 23 245 0.0 0.0 0.00 0.66 0.03 95 1008.6
20260904060627 23 245 0.0 0.0 0.00 0.66 0.03 95 1008.6
20260904060526 23 245 0.0 0.0 0.00 0.69 0.03 95 1008.6
20260904060519 23 245 0.0 0.0 0.00 0.69 0.03 95 1008.8
20260904060426 23 245 0.0 0.0 0.00 0.69 0.03 95 1008.6
20260904060325 23 245 0.0 0.0 0.00 0.69 0.03 95 1008.7
20260904060225 23 245 0.0 0.0 0.00 0.69 0.03 95 1008.7
20260904060125 23 245 0.0 0.0 0.00 0.69 0.03 95 1008.7
20260904060025 23 245 0.0 0.0 0.00 0.71 0.03 95 1008.8
20260904060019 23 245 0.0 0.0 0.00 0.71 0.03 95 1009.1
20260904055924 23 245 0.0 0.0 0.00 0.71 0.03 95 1008.9
20260904055822 23 245 0.0 0.0 0.00 0.71 0.03 95 1008.8
20260904055722 23 245 0.0 0.0 0.00 0.71 0.03 95 1008.8
20260904055622 23 245 0.0 0.0 0.00 0.74 0.03 95 1008.8
20260904055549 23 245 0.0 0.0 0.00 0.74 0.03 95 1009.1
20260904055521 23 245 0.0 0.0 0.00 0.74 0.03 95 1008.9
20260904055419 23 245 0.0 0.0 0.00 0.74 0.03 95 1008.9
20260904055333 23 245 0.0 0.0 0.00 0.74 0.03 95 1009.0
20260904055328 23 245 0.0 0.0 0.00 0.74 0.03 95 1009.0
20260904055117 23 245 0.0 0.0 0.00 0.76 0.03 95 1009.0
20260904055019 23 245 0.0 0.0 0.00 0.79 0.03 95 1009.3
20260904055017 23 245 0.0 0.0 0.00 0.79 0.03 95 1009.1
20260904054916 23 245 0.0 0.0 0.00 0.84 0.03 95 1009.1
20260904054816 23 245 0.0 0.0 0.00 0.91 0.03 95 1009.1
20260904054715 23 245 0.0 0.0 0.00 0.99 0.03 95 1009.1
20260904054615 23 245 0.0 0.0 0.00 1.12 0.03 95 1009.2
20260904054537 23 245 0.0 0.0 0.00 1.12 0.03 95 1009.3
20260904054519 23 245 0.0 0.0 0.00 1.17 0.03 95 1009.4
20260904054515 23 245 0.0 0.0 0.00 1.22 0.03 95 1009.3
20260904054414 23 245 0.0 0.0 0.00 1.30 0.03 95 1009.2
20260904054328 23 245 0.0 0.0 0.00 1.35 0.03 95 1009.3
20260904054322 23 245 0.0 0.0 0.00 1.35 0.03 95 1009.3
20260904054113 23 245 0.0 0.0 0.00 1.37 0.03 95 1009.4
20260904054019 23 245 0.0 0.0 0.00 1.37 0.03 95 1009.6
20260904054012 23 245 0.0 0.0 0.00 1.40 0.03 95 1009.4
20260904053914 23 245 0.0 0.0 0.00 1.40 0.03 95 1009.4
20260904053813 23 245 0.0 0.0 0.00 1.42 0.03 95 1009.5
20260904053712 23 245 0.0 0.0 0.00 1.42 0.03 95 1009.6
20260904053627 23 245 0.0 0.0 0.00 1.45 0.03 95 1009.7
20260904053618 23 245 0.0 0.0 0.00 1.45 0.03 95 1009.7
20260904053534 23 245 0.0 0.0 0.00 1.45 0.03 95 1009.9
20260904053415 23 245 0.0 0.0 0.00 1.45 0.03 95 1009.7
20260904053406 23 245 0.0 0.0 0.00 1.47 0.03 95 1009.7
20260904053209 23 233 0.0 0.0 0.00 1.47 0.03 95 1009.7
20260904053146 23 232 0.0 0.0 0.00 1.47 0.03 95 1009.7
20260904053034 23 232 0.0 0.0 0.00 1.47 0.03 95 1010.0
20260904053005 23 232 0.0 0.0 0.00 1.47 0.03 95 1009.7
20260904052905 23 232 0.0 0.0 0.00 1.50 0.03 95 1009.8
20260904052806 23 232 0.0 0.0 0.00 1.50 0.03 95 1009.8
20260904052737 23 232 0.0 0.0 0.00 1.52 0.03 95 1009.8
20260904052733 23 232 0.0 0.0 0.00 1.52 0.03 95 1009.7
20260904052728 23 232 0.0 0.0 0.00 1.50 0.03 95 1009.8
20260904052611 23 232 0.0 0.0 0.00 1.52 0.03 95 1009.8
20260904052519 23 232 0.0 0.0 0.00 1.52 0.03 95 1009.9
20260904052404 23 232 0.0 0.0 0.00 1.52 0.03 95 1009.7
20260904052306 23 232 0.0 0.0 0.00 1.52 0.03 95 1009.7
20260904052203 23 232 0.0 0.0 0.00 1.52 0.03 95 1009.7
20260904052034 23 232 0.0 0.0 0.00 1.52 0.03 95 1009.7
20260904052019 23 232 0.0 0.0 0.00 1.52 0.03 95 1009.8
20260904052002 23 232 0.0 0.0 0.00 1.52 0.03 95 1009.6
20260904051902 23 232 0.0 0.0 0.00 1.55 0.03 95 1009.6
20260904051758 23 232 0.0 0.0 0.00 1.55 0.03 95 1009.5
20260904051700 23 232 0.0 0.0 0.00 1.55 0.03 95 1009.5
20260904051533 23 232 0.0 0.0 0.00 1.55 0.03 95 1009.4
20260904051519 23 232 0.0 0.0 0.00 1.55 0.03 95 1009.6
20260904051500 23 232 0.0 0.0 0.00 1.55 0.03 95 1009.4
20260904051358 23 232 0.0 0.0 0.00 1.55 0.03 95 1009.4
20260904051258 23 232 0.0 0.0 0.00 1.55 0.03 95 1009.4
20260904051158 23 232 0.0 0.0 0.00 1.55 0.03 95 1009.4
20260904051031 23 232 0.0 0.0 0.00 1.55 0.03 95 1009.3
20260904051019 23 232 0.0 0.0 0.00 1.55 0.03 95 1009.5
20260904050956 23 232 0.0 0.0 0.00 1.55 0.03 95 1009.3
20260904050856 23 232 0.0 0.0 0.03 1.55 0.03 95 1009.3
20260904050755 23 232 0.0 0.0 0.03 1.55 0.03 95 1009.3
20260904050655 23 232 0.0 0.0 0.03 1.55 0.03 95 1009.3
20260904050613 23 232 0.0 0.0 0.03 1.55 0.03 94 1009.3
20260904050601 23 232 0.0 0.0 0.03 1.55 0.03 94 1009.3
20260904050519 23 232 0.0 0.0 0.03 1.55 0.03 94 1009.5
20260904050354 23 232 0.0 0.0 0.03 1.55 0.03 94 1009.3
20260904050252 23 232 0.0 0.0 0.03 1.55 0.03 94 1009.2
20260904050206 23 232 0.0 0.0 0.03 1.55 0.03 94 1009.2
20260904050201 23 232 0.0 0.0 0.03 1.55 0.03 94 1009.2
20260904050029 23 232 0.0 0.0 0.03 1.55 0.03 94 1009.2
20260904050020 23 232 0.0 0.0 0.03 1.55 0.03 94 1009.2
20260904050013 23 232 0.0 0.0 0.03 1.55 0.03 94 1009.2
20260904045749 23 232 0.0 0.0 0.03 1.55 0.03 94 1009.2
20260904045649 23 232 0.0 0.0 0.03 1.55 0.03 94 1009.1
20260904045635 23 232 0.0 0.0 0.03 1.55 0.03 94 1009.0
20260904045519 23 232 0.0 0.0 0.03 1.55 0.03 94 1009.2
20260904045447 23 232 0.0 0.0 0.03 1.55 0.03 94 1009.0
20260904045400 23 232 0.0 0.0 0.03 1.55 0.03 94 1009.0
20260904045356 23 232 0.0 0.0 0.03 1.55 0.03 94 1009.0
20260904045146 23 232 0.0 0.0 0.03 1.55 0.03 94 1009.0
20260904045025 23 232 0.0 0.0 0.03 1.55 0.03 94 1009.0
20260904045019 23 232 0.0 0.0 0.03 1.55 0.03 94 1009.2
20260904044946 23 232 0.0 0.0 0.03 1.55 0.03 94 1009.0
20260904044845 23 232 0.0 0.0 0.03 1.55 0.03 94 1009.0
20260904044817 23 232 0.0 0.0 0.03 1.55 0.03 94 1009.1
20260904044745 23 232 0.0 0.0 0.03 1.55 0.03 94 1009.0
20260904044714 23 232 0.0 0.0 0.03 1.55 0.03 94 1009.1
20260904044708 23 232 0.0 0.0 0.03 1.55 0.03 94 1009.1
20260904044659 23 232 0.0 0.0 0.03 1.55 0.03 94 1009.1
20260904044534 23 232 0.0 0.0 0.03 1.55 0.03 94 1009.3
20260904044344 23 232 0.0 0.0 0.03 1.55 0.03 94 1009.1
20260904044248 23 232 0.0 0.0 0.03 1.55 0.03 94 1009.0
20260904044244 23 232 0.0 0.0 0.03 1.55 0.03 94 1009.0
20260904044143 23 232 0.0 0.0 0.03 1.55 0.03 94 1009.0
20260904044131 23 232 0.0 0.0 0.03 1.55 0.03 94 1009.0
20260904044019 23 232 0.0 0.0 0.03 1.55 0.03 94 1009.2
20260904044017 23 232 0.0 0.0 0.03 1.55 0.03 94 1009.0
20260904044012 23 232 0.0 0.0 0.03 1.55 0.03 94 1009.0
20260904043749 23 232 0.0 0.0 0.03 1.55 0.03 94 1009.1
20260904043523 23 232 0.0 0.0 0.03 1.55 0.03 94 1009.1
20260904043519 23 232 0.0 0.0 0.03 1.55 0.03 94 1009.3
20260904043439 23 232 0.0 0.0 0.03 1.55 0.03 94 1009.1
20260904043339 23 232 0.0 0.0 0.03 1.55 0.03 94 1009.1
20260904043251 23 232 0.0 0.0 0.03 1.55 0.03 94 1009.1
20260904043247 23 232 0.0 0.0 0.03 1.55 0.03 94 1009.0
20260904043057 23 232 0.0 0.0 0.03 1.55 0.03 94 1009.1
20260904043044 23 232 0.0 0.0 0.03 1.55 0.03 94 1009.1
20260904043019 23 232 0.0 0.0 0.03 1.55 0.03 94 1009.3
20260904042836 23 232 0.0 0.0 0.03 1.55 0.03 94 1009.1
20260904042736 23 232 0.0 0.0 0.03 1.55 0.03 94 1009.2
20260904042703 23 232 0.0 0.0 0.03 1.55 0.03 94 1009.2
20260904042542 23 232 0.0 0.0 0.03 1.55 0.03 94 1009.2
20260904042519 23 232 0.0 0.0 0.03 1.55 0.03 94 1009.4
20260904042333 23 232 0.0 0.0 0.03 1.55 0.03 94 1009.3
20260904042233 23 232 0.0 0.0 0.03 1.55 0.03 94 1009.3
20260904042133 23 232 0.0 0.0 0.03 1.55 0.03 94 1009.3
20260904042019 23 232 0.0 0.0 0.03 1.55 0.03 94 1009.6
20260904041932 23 232 0.0 0.0 0.03 1.55 0.03 94 1009.4
20260904041832 23 232 0.0 0.0 0.03 1.55 0.03 94 1009.4
20260904041731 23 232 0.0 0.0 0.03 1.55 0.03 94 1009.5
20260904041644 23 232 0.0 0.0 0.03 1.55 0.03 94 1009.6
20260904041640 23 232 0.0 0.0 0.03 1.55 0.03 94 1009.6
20260904041519 23 232 0.0 0.0 0.03 1.55 0.03 94 1009.8
20260904041517 23 232 0.0 0.0 0.03 1.55 0.03 94 1009.6
20260904041430 23 232 0.0 0.0 0.03 1.55 0.03 94 1009.6
20260904041228 23 232 0.0 0.0 0.03 1.55 0.03 94 1009.8
20260904041128 23 232 0.0 0.0 0.03 1.55 0.03 94 1009.8
20260904041045 23 232 0.0 0.0 0.03 1.55 0.03 94 1009.8
20260904041033 23 232 0.0 0.0 0.03 1.55 0.03 94 1009.8
20260904041019 23 232 0.0 0.0 0.03 1.55 0.03 94 1010.0
20260904040827 23 232 0.0 0.0 0.00 1.52 0.00 93 1009.8
20260904040725 23 232 0.0 0.0 0.00 1.52 0.00 93 1009.8
20260904040625 23 232 0.0 0.0 0.00 1.52 0.00 93 1009.9
20260904040544 23 232 0.0 0.0 0.00 1.52 0.00 93 1009.8
20260904040531 23 232 0.0 0.0 0.00 1.52 0.00 93 1009.9
20260904040519 23 232 0.0 0.0 0.00 1.52 0.00 93 1010.0
20260904040324 23 232 0.0 0.0 0.00 1.52 0.00 93 1009.8
20260904040223 23 232 0.0 0.0 0.00 1.52 0.00 93 1009.8
20260904040136 23 232 0.0 0.0 0.00 1.52 0.00 93 1009.8
20260904040132 23 232 0.0 0.0 0.00 1.52 0.00 93 1009.8
20260904040019 23 232 0.0 0.0 0.00 1.52 0.00 93 1010.0
20260904040012 23 232 0.0 0.0 0.00 1.52 0.00 93 1009.8
20260904035922 23 232 0.0 0.0 0.00 1.52 1.52 93 1009.8
20260904035821 23 232 0.0 0.0 0.00 1.52 1.52 93 1009.8
20260904035720 23 232 0.0 0.0 0.00 1.52 1.52 93 1009.8
20260904035620 23 232 0.0 0.0 0.00 1.52 1.52 93 1009.8
20260904035519 23 232 0.0 0.0 0.00 1.52 1.52 93 1010.0
20260904035513 23 232 0.0 0.0 0.00 1.52 1.52 93 1009.9
20260904035430 23 232 0.0 0.0 0.00 1.52 1.52 93 1009.8
20260904035425 23 232 0.0 0.0 0.00 1.52 1.52 93 1009.9
20260904035216 23 232 0.0 0.0 0.00 1.52 1.52 93 1009.8
20260904035115 23 232 0.0 0.0 0.00 1.52 1.52 93 1009.8
20260904035056 23 232 0.0 0.0 0.00 1.52 1.52 93 1009.7
20260904035044 23 232 0.0 0.0 0.00 1.52 1.52 93 1009.8
20260904035019 23 232 0.0 0.0 0.00 1.52 1.52 93 1009.9
20260904034932 23 232 0.0 0.0 0.00 1.52 1.52 93 1009.8
20260904034613 23 232 0.0 0.0 0.00 1.52 1.52 93 1009.7
20260904034546 23 232 0.0 0.0 0.00 1.52 1.52 93 1009.7
20260904034542 23 232 0.0 0.0 0.00 1.52 1.52 93 1009.8
20260904034532 23 232 0.0 0.0 0.00 1.52 1.52 93 1009.7
20260904034519 23 232 0.0 0.0 0.00 1.52 1.52 93 1009.8
20260904034225 23 232 0.0 0.0 0.00 1.52 1.52 93 1009.8
20260904034221 23 232 0.0 0.0 0.00 1.52 1.52 93 1009.8
20260904034049 23 232 0.0 0.0 0.00 1.52 1.52 93 1009.9
20260904034013 23 232 0.0 0.0 0.00 1.52 1.52 93 1009.8
20260904033910 23 232 0.0 0.0 0.00 1.52 1.52 93 1009.8
20260904033810 23 232 0.0 0.0 0.00 1.52 1.52 93 1009.8
20260904033708 23 232 0.0 0.0 0.00 1.52 1.52 93 1009.8
20260904033608 23 232 0.0 0.0 0.00 1.52 1.52 93 1009.8
20260904033519 23 232 0.0 0.0 0.00 1.52 1.52 93 1010.0
20260904033508 23 232 0.0 0.0 0.00 1.52 1.52 93 1009.9
20260904033408 23 232 0.0 0.0 0.00 1.52 1.52 93 1009.9
20260904033306 23 232 0.0 0.0 0.00 1.52 1.52 93 1009.9
20260904033206 23 232 0.0 0.0 0.00 1.52 1.52 93 1009.9
20260904033106 23 232 0.0 0.0 0.00 1.52 1.52 93 1010.0
20260904033019 23 232 0.0 0.0 0.00 1.52 1.52 93 1010.0
20260904033005 23 232 0.0 0.0 0.00 1.52 1.52 93 1009.9
20260904032905 23 232 0.0 0.0 0.00 1.52 1.52 93 1010.0
20260904032803 23 232 0.0 0.0 0.00 1.52 1.52 93 1010.0
20260904032716 23 232 0.0 0.0 0.00 1.52 1.52 93 1010.0
20260904032712 23 232 0.0 0.0 0.00 1.52 1.52 93 1010.0
20260904032519 23 232 0.0 0.0 0.00 1.52 1.52 93 1010.1
20260904032508 23 232 0.0 0.0 0.00 1.52 1.52 93 1010.0
20260904032502 23 232 0.0 0.0 0.00 1.52 1.52 93 1010.0
20260904032402 23 232 0.0 0.0 0.00 1.52 1.52 93 1010.1
20260904032318 23 232 0.0 0.0 0.00 1.52 1.52 93 1010.1
20260904032314 23 232 0.0 0.0 0.00 1.52 1.52 93 1010.1
20260904032310 23 232 0.0 0.0 0.00 1.52 1.52 93 1010.1
20260904032116 23 232 0.0 0.0 0.00 1.52 1.52 93 1010.1
20260904032019 23 232 0.0 0.0 0.00 1.52 1.52 93 1010.3
20260904032000 23 232 0.0 0.0 0.00 1.52 1.52 93 1010.2
20260904031900 23 232 0.0 0.0 0.00 1.52 1.52 93 1010.2
20260904031759 23 232 0.0 0.0 0.00 1.52 1.52 93 1010.2
20260904031659 23 232 0.0 0.0 0.00 1.52 1.52 93 1010.2
20260904031559 23 232 0.0 0.0 0.00 1.52 1.52 93 1010.3
20260904031519 23 232 0.0 0.0 0.00 1.52 1.52 93 1010.4
20260904031506 23 232 0.0 0.0 0.00 1.52 1.52 93 1010.3
20260904031458 23 232 0.0 0.0 0.00 1.52 1.52 93 1010.3
20260904031358 23 232 0.0 0.0 0.00 1.52 1.52 92 1010.3
20260904031258 23 232 0.0 0.0 0.00 1.52 1.52 92 1010.4
20260904031229 23 232 0.0 0.0 0.00 1.52 1.52 92 1010.4
20260904031224 23 232 0.0 0.0 0.00 1.52 1.52 92 1010.4
20260904031019 23 232 0.0 0.0 0.00 1.52 1.52 92 1010.5
20260904030956 23 232 0.0 0.0 0.00 1.52 1.52 92 1010.4
20260904030856 23 232 0.0 0.0 0.00 1.52 1.52 92 1010.4
20260904030756 23 232 0.0 0.0 0.00 1.52 1.52 92 1010.4
20260904030655 23 232 0.0 0.0 0.00 1.52 1.52 92 1010.4
20260904030614 23 232 0.0 0.0 0.00 1.52 1.52 92 1010.4
20260904030600 23 232 0.0 0.0 0.00 1.52 1.52 92 1010.4
20260904030519 23 232 0.0 0.0 0.00 1.52 1.52 92 1010.5
20260904030354 23 232 0.0 0.0 0.00 1.52 1.52 92 1010.4
20260904030253 23 232 0.0 0.0 0.00 1.52 1.52 92 1010.3
20260904030203 23 232 0.0 0.0 0.00 1.52 1.52 92 1010.3
20260904030159 23 232 0.0 0.0 0.00 1.52 1.52 92 1010.3
20260904030019 23 232 0.0 0.0 0.00 1.52 1.52 92 1010.4
20260904030006 23 232 0.0 0.0 0.00 1.52 1.52 92 1010.3
20260904025949 23 232 0.0 0.0 0.00 1.52 1.52 92 1010.3
20260904025848 23 232 0.0 0.0 0.00 1.52 1.52 92 1010.4
20260904025747 23 232 0.0 0.0 0.00 1.52 1.52 92 1010.3
20260904025647 23 232 0.0 0.0 0.00 1.52 1.52 92 1010.4
20260904025547 23 232 0.0 0.0 0.00 1.52 1.52 92 1010.3
20260904025519 23 232 0.0 0.0 0.00 1.52 1.52 92 1010.4
20260904025507 23 232 0.0 0.0 0.00 1.52 1.52 92 1010.3
20260904025446 23 232 0.0 0.0 0.00 1.52 1.52 92 1010.3
20260904025346 23 232 0.0 0.0 0.00 1.52 1.52 92 1010.2
20260904025245 23 232 0.0 0.0 0.00 1.52 1.52 92 1010.3
20260904025145 23 232 0.0 0.0 0.00 1.52 1.52 92 1010.2
20260904025044 23 232 0.0 0.0 0.00 1.52 1.52 92 1010.2
20260904025019 23 232 0.0 0.0 0.00 1.52 1.52 92 1010.3
20260904025005 23 232 0.0 0.0 0.00 1.52 1.52 92 1010.2
20260904024944 23 232 0.0 0.0 0.00 1.52 1.52 92 1010.2
20260904024843 23 232 0.0 0.0 0.00 1.52 1.52 92 1010.2
20260904024743 23 232 0.0 0.0 0.00 1.52 1.52 92 1010.2
20260904024643 23 232 0.0 0.0 0.00 1.52 1.52 92 1010.2
20260904024543 23 232 0.0 0.0 0.00 1.52 1.52 92 1010.2
20260904024519 23 232 0.0 0.0 0.00 1.52 1.52 92 1010.3
20260904024505 23 232 0.0 0.0 0.00 1.52 1.52 92 1010.2
20260904024442 23 232 0.0 0.0 0.00 1.52 1.52 91 1010.2
20260904024348 23 232 0.0 0.0 0.00 1.52 1.52 91 1010.1
20260904024344 23 232 0.0 0.0 0.00 1.52 1.52 91 1010.2
20260904024335 23 232 0.0 0.0 0.00 1.52 1.52 91 1010.2
20260904024222 23 232 0.0 0.0 0.00 1.52 1.52 91 1010.2
20260904024019 23 232 0.0 0.0 0.00 1.52 1.52 91 1010.2
20260904023938 23 232 0.0 0.0 0.00 1.52 1.52 91 1010.1
20260904023837 23 232 0.0 0.0 0.00 1.52 1.52 91 1010.1
20260904023736 23 232 0.0 0.0 0.00 1.52 1.52 91 1010.1
20260904023635 23 232 0.0 0.0 0.00 1.52 1.52 91 1010.0
20260904023549 23 232 0.0 0.0 0.00 1.52 1.52 91 1010.1
20260904023535 23 232 0.0 0.0 0.00 1.52 1.52 91 1010.1
20260904023504 23 232 0.0 0.0 0.00 1.52 1.52 91 1010.0
20260904023435 23 232 0.0 0.0 0.00 1.52 1.52 91 1010.0
20260904023334 23 232 0.0 0.0 0.00 1.52 1.52 91 1010.1
20260904023235 23 232 0.0 0.0 0.00 1.52 1.52 91 1010.0
20260904023134 23 232 0.0 0.0 0.00 1.52 1.52 91 1010.1
20260904023019 23 232 0.0 0.0 0.00 1.52 1.52 91 1010.1
20260904023003 23 232 0.0 0.0 0.00 1.52 1.52 91 1010.0
20260904022934 23 232 0.0 0.0 0.00 1.52 1.52 91 1010.0
20260904022832 23 232 0.0 0.0 0.00 1.52 1.52 91 1010.0
20260904022732 23 232 0.0 0.0 0.00 1.52 1.52 91 1010.0
20260904022631 23 232 0.0 0.0 0.00 1.52 1.52 91 1010.0
20260904022519 23 232 0.0 0.0 0.00 1.52 1.52 91 1010.1
20260904022502 23 232 0.0 0.0 0.00 1.52 1.52 91 1010.0
20260904022443 23 232 0.0 0.0 0.00 1.52 1.52 91 1010.1
20260904022439 23 232 0.0 0.0 0.00 1.52 1.52 91 1010.0
20260904022230 23 232 0.0 0.0 0.00 1.52 1.52 91 1010.1
20260904022211 23 232 0.0 0.0 0.00 1.52 1.52 90 1010.2
20260904022206 23 232 0.0 0.0 0.00 1.52 1.52 90 1010.1
20260904022045 23 232 0.0 0.0 0.00 1.52 1.52 90 1010.2
20260904022019 23 232 0.0 0.0 0.00 1.52 1.52 90 1010.3
20260904021728 23 232 0.0 0.0 0.00 1.52 1.52 90 1010.2
20260904021628 23 232 0.0 0.0 0.00 1.52 1.52 90 1010.2
20260904021526 23 232 0.0 0.0 0.00 1.52 1.52 90 1010.2
20260904021519 23 232 0.0 0.0 0.00 1.52 1.52 90 1010.2
20260904021502 23 232 0.0 0.0 0.00 1.52 1.52 90 1010.1
20260904021426 23 232 0.0 0.0 0.00 1.52 1.52 90 1010.1
20260904021326 23 232 0.0 0.0 0.00 1.52 1.52 90 1010.2
20260904021226 23 232 0.0 0.0 0.00 1.52 1.52 90 1010.3
20260904021126 23 232 0.0 0.0 0.00 1.52 1.52 90 1010.3
20260904021045 23 232 0.0 0.0 0.00 1.52 1.52 90 1010.3
20260904021034 23 232 0.0 0.0 0.00 1.52 1.52 90 1010.4
20260904021032 23 232 0.0 0.0 0.00 1.52 1.52 90 1010.3
20260904020904 23 232 0.0 0.0 0.00 1.52 1.52 90 1010.4
20260904020900 24 232 0.0 0.0 0.00 1.52 1.52 90 1010.3
20260904020856 24 232 0.0 0.0 0.00 1.52 1.52 90 1010.4
20260904020851 23 232 0.0 0.0 0.00 1.52 1.52 90 1010.4
20260904020519 24 232 0.0 0.0 0.00 1.52 1.52 90 1010.5
20260904020501 24 232 0.0 0.0 0.00 1.52 1.52 90 1010.4
20260904020434 24 232 0.0 0.0 0.00 1.52 1.52 90 1010.4
20260904020430 24 232 0.0 0.0 0.00 1.52 1.52 90 1010.4
20260904020221 24 232 0.0 0.0 0.00 1.52 1.52 90 1010.4
20260904020120 24 232 0.0 0.0 0.00 1.52 1.52 90 1010.4
20260904020034 24 232 0.0 0.0 0.00 1.52 1.52 90 1010.6
20260904020003 24 232 0.0 0.0 0.00 1.52 1.52 90 1010.5
20260904015941 24 232 0.0 0.0 0.00 1.52 1.52 90 1010.5
20260904015828 24 232 0.0 0.0 0.00 1.52 1.52 90 1010.5
20260904015617 24 232 0.0 0.0 0.00 1.52 1.52 90 1010.6
20260904015519 24 232 0.0 0.0 0.00 1.52 1.52 90 1010.7
20260904015503 24 232 0.0 0.0 0.00 1.52 1.52 90 1010.6
20260904015416 24 232 0.0 0.0 0.00 1.52 1.52 90 1010.6
20260904015316 24 232 0.0 0.0 0.00 1.52 1.52 90 1010.7
20260904015215 24 232 0.0 0.0 0.00 1.52 1.52 90 1010.7
20260904015115 24 232 0.0 0.0 0.00 1.52 1.52 90 1010.7
20260904015019 24 232 0.0 0.0 0.00 1.52 1.52 89 1010.8
20260904015014 24 232 0.0 0.0 0.00 1.52 1.52 89 1010.7
20260904015002 24 232 0.0 0.0 0.00 1.52 1.52 89 1010.7
20260904014926 24 232 0.0 0.0 0.00 1.52 1.52 89 1010.7
20260904014922 24 232 0.0 0.0 0.00 1.52 1.52 89 1010.7
20260904014712 24 232 0.0 0.0 0.00 1.52 1.52 89 1010.8
20260904014612 24 232 0.0 0.0 0.00 1.52 1.52 89 1010.7
20260904014534 24 232 0.0 0.0 0.00 1.52 1.52 89 1010.7
20260904014512 24 232 0.0 0.0 0.00 1.52 1.52 89 1010.7
20260904014501 24 232 0.0 0.0 0.00 1.52 1.52 89 1010.7
20260904014410 24 232 0.0 0.0 0.00 1.52 1.52 89 1010.7
20260904014310 24 232 0.0 0.0 0.00 1.52 1.52 89 1010.6
20260904014209 24 232 0.0 0.0 0.00 1.52 1.52 89 1010.6
20260904014109 24 232 0.0 0.0 0.00 1.52 1.52 89 1010.5
20260904014023 24 232 0.0 0.0 0.00 1.52 1.52 89 1010.5
20260904014019 24 232 0.0 0.0 0.00 1.52 1.52 89 1010.6
20260904014016 24 232 0.0 0.0 0.00 1.52 1.52 89 1010.6
20260904013807 24 232 0.0 0.0 0.00 1.52 1.52 89 1010.6
20260904013708 24 232 0.0 0.0 0.00 1.52 1.52 89 1010.6
20260904013607 24 232 0.0 0.0 0.00 1.52 1.52 89 1010.6
20260904013519 24 232 0.0 0.0 0.00 1.52 1.52 89 1010.7
20260904013507 24 232 0.0 0.0 0.00 1.52 1.52 89 1010.7
20260904013456 24 232 0.0 0.0 0.00 1.52 1.52 89 1010.7
20260904013406 24 232 0.0 0.0 0.00 1.52 1.52 89 1010.6
20260904013305 24 232 0.0 0.0 0.00 1.52 1.52 89 1010.7
20260904013205 24 232 0.0 0.0 0.00 1.52 1.52 89 1010.7
20260904013105 24 232 0.0 0.0 0.00 1.52 1.52 89 1010.7
20260904013019 24 232 0.0 0.0 0.00 1.52 1.52 89 1010.7
20260904012954 24 232 0.0 0.0 0.00 1.52 1.52 89 1010.7
20260904012904 24 232 0.0 0.0 0.00 1.52 1.52 89 1010.6
20260904012803 24 232 0.0 0.0 0.00 1.52 1.52 89 1010.7
20260904012703 24 232 0.0 0.0 0.00 1.52 1.52 89 1010.6
20260904012601 24 232 0.0 0.0 0.00 1.52 1.52 89 1010.7
20260904012519 24 232 0.0 0.0 0.00 1.52 1.52 89 1010.6
20260904012455 24 232 0.0 0.0 0.00 1.52 1.52 89 1010.6
20260904012414 24 232 0.0 0.0 0.00 1.52 1.52 89 1010.7
20260904012410 24 232 0.0 0.0 0.00 1.52 1.52 89 1010.6
20260904012200 24 232 0.0 0.0 0.00 1.52 1.52 89 1010.6
20260904012100 24 232 0.0 0.0 0.00 1.52 1.52 89 1010.6
20260904012034 24 232 0.0 0.0 0.00 1.52 1.52 89 1010.6
20260904012019 24 232 0.0 0.0 0.00 1.52 1.52 89 1010.7
20260904012007 24 232 0.0 0.0 0.00 1.52 1.52 89 1010.6
20260904011759 24 232 0.0 0.0 0.00 1.52 1.52 89 1010.7
20260904011658 24 232 0.0 0.0 0.00 1.52 1.52 89 1010.7
20260904011558 24 232 0.0 0.0 0.00 1.52 1.52 89 1010.8
20260904011519 24 232 0.0 0.0 0.00 1.52 1.52 89 1010.7
20260904011517 24 232 0.0 0.0 0.00 1.52 1.52 89 1010.7
20260904011405 24 232 0.0 0.0 0.00 1.52 1.52 89 1010.8
20260904011155 24 232 0.0 0.0 0.00 1.52 1.52 89 1010.8
20260904011055 24 232 0.0 0.0 0.00 1.52 1.52 89 1010.8
20260904011019 25 232 0.0 0.0 0.00 1.52 1.52 89 1010.9
20260904011014 24 232 0.0 0.0 0.00 1.52 1.52 89 1010.9
20260904011004 24 232 0.0 0.0 0.00 1.52 1.52 89 1010.9
20260904010753 24 232 0.0 0.0 0.00 1.52 1.52 88 1010.9
20260904010706 24 232 0.0 0.0 0.00 1.52 1.52 88 1011.0
20260904010702 25 232 0.0 0.0 0.00 1.52 1.52 88 1011.0
20260904010549 25 232 0.0 0.0 0.00 1.52 1.52 88 1011.0
20260904010452 25 232 0.0 0.0 0.00 1.52 1.52 88 1011.0
20260904010400 25 232 0.0 0.0 0.00 1.52 1.52 88 1011.0
20260904010351 25 232 0.0 0.0 0.00 1.52 1.52 88 1011.0
20260904010240 25 232 0.0 0.0 0.00 1.52 1.52 88 1010.9
20260904010234 25 232 0.0 0.0 0.00 1.52 1.52 88 1011.0
20260904010115 25 232 0.0 0.0 0.00 1.52 1.52 88 1010.9
20260904010019 25 232 0.0 0.0 0.00 1.52 1.52 88 1010.9
20260904005857 25 232 0.0 0.0 0.00 1.52 1.52 87 1010.9
20260904005647 25 232 0.0 0.0 0.00 1.52 1.52 87 1010.7
20260904005549 25 232 0.0 0.0 0.00 1.52 1.52 87 1010.7
20260904005547 25 232 0.0 0.0 0.00 1.52 1.52 87 1010.7
20260904005446 25 232 0.0 0.0 0.00 1.52 1.52 87 1010.7
20260904005346 25 232 0.0 0.0 0.00 1.52 1.52 87 1010.7
20260904005246 25 232 0.0 0.0 0.00 1.52 1.52 87 1010.7
20260904005145 25 232 0.0 0.0 0.00 1.52 1.52 87 1010.8
20260904005045 25 232 0.0 0.0 0.00 1.52 1.52 87 1010.8
20260904005019 25 232 0.0 0.0 0.00 1.52 1.52 87 1010.9
20260904004944 25 232 0.0 0.0 0.00 1.52 1.52 87 1010.9
20260904004857 25 232 0.0 0.0 0.00 1.52 1.52 87 1010.9
20260904004853 25 232 0.0 0.0 0.00 1.52 1.52 87 1010.9
20260904004643 25 232 0.0 0.0 0.00 1.52 1.52 87 1010.9
20260904004543 25 232 0.0 0.0 0.00 1.52 1.52 87 1010.8
20260904004519 25 232 0.0 0.0 0.00 1.52 1.52 87 1010.8
20260904004500 25 232 0.0 0.0 0.00 1.52 1.52 87 1010.8
20260904004449 25 232 0.0 0.0 0.00 1.52 1.52 87 1010.8
20260904004239 25 232 0.0 0.0 0.00 1.52 1.52 87 1010.8
20260904004139 25 232 0.0 0.0 0.00 1.52 1.52 87 1010.8
20260904004039 25 232 0.0 0.0 0.00 1.52 1.52 87 1010.8
20260904004019 25 232 0.0 0.0 0.00 1.52 1.52 87 1010.7
20260904003938 25 232 0.0 0.0 0.00 1.52 1.52 87 1010.7
20260904003835 25 232 0.0 0.0 0.00 1.52 1.52 87 1010.7
20260904003735 25 232 0.0 0.0 0.00 1.52 1.52 86 1010.8
20260904003648 25 232 0.0 0.0 0.00 1.52 1.52 86 1010.8
20260904003644 25 232 0.0 0.0 0.00 1.52 1.52 86 1010.8
20260904003519 25 232 0.0 0.0 0.00 1.52 1.52 86 1010.8
20260904003434 25 232 0.0 0.0 0.00 1.52 1.52 86 1010.8
20260904003345 25 232 0.0 0.0 0.00 1.52 1.52 86 1010.8
20260904003341 25 232 0.0 0.0 0.00 1.52 1.52 86 1010.8
20260904003132 25 232 0.0 0.0 0.00 1.52 1.52 86 1010.8
20260904003031 25 232 0.0 0.0 0.00 1.52 1.52 86 1010.9
20260904003019 25 232 0.0 0.0 0.00 1.52 1.52 86 1010.8
20260904002931 25 232 0.0 0.0 0.00 1.52 1.52 86 1010.8
20260904002843 25 232 0.0 0.0 0.00 1.52 1.52 86 1010.8
20260904002839 25 232 0.0 0.0 0.00 1.52 1.52 86 1010.8
20260904002702 25 232 0.0 0.0 0.00 1.52 1.52 86 1010.7
20260904002657 25 232 0.0 0.0 0.00 1.52 1.52 86 1010.7
20260904002652 25 232 0.0 0.0 0.00 1.52 1.52 86 1010.8
20260904002534 25 232 0.0 0.0 0.00 1.52 1.52 86 1010.7
20260904002520 25 232 0.0 0.0 0.00 1.52 1.52 86 1010.7
20260904002327 25 232 0.0 0.0 0.00 1.52 1.52 86 1010.6
20260904002227 25 232 0.0 0.0 0.00 1.52 1.52 86 1010.6
20260904002126 25 232 0.0 0.0 0.00 1.52 1.52 86 1010.5
20260904002026 25 232 0.0 0.0 0.00 1.52 1.52 85 1010.4
20260904002019 25 232 0.0 0.0 0.00 1.52 1.52 85 1010.4
20260904001925 25 232 0.0 0.0 0.00 1.52 1.52 85 1010.4
20260904001825 25 232 0.0 0.0 0.00 1.52 1.52 85 1010.4
20260904001725 25 232 0.0 0.0 0.00 1.52 1.52 85 1010.4
20260904001624 25 232 0.0 0.0 0.00 1.52 1.52 85 1010.4
20260904001525 25 232 0.0 0.0 0.00 1.52 1.52 85 1010.3
20260904001519 25 232 0.0 0.0 0.00 1.52 1.52 85 1010.3
20260904001425 25 232 0.0 0.0 0.00 1.52 1.52 85 1010.3
20260904001323 25 232 0.0 0.0 0.00 1.52 1.52 84 1010.3
20260904001305 25 232 0.0 0.0 0.00 1.52 1.52 84 1010.3
20260904001259 25 232 0.0 0.0 0.00 1.52 1.52 84 1010.2
20260904001146 25 232 0.0 0.0 0.00 1.52 1.52 84 1010.3
20260904001029 25 232 0.0 0.0 0.00 1.52 1.52 84 1010.3
20260904001019 25 232 0.0 0.0 0.00 1.52 1.52 84 1010.3
20260904000819 25 232 0.0 0.0 0.00 1.52 1.52 84 1010.3
20260904000718 25 232 0.0 0.0 0.00 1.52 1.52 84 1010.3
20260904000618 25 232 0.0 0.0 0.00 1.52 1.52 84 1010.3
20260904000519 25 232 0.0 0.0 0.00 1.52 1.52 84 1010.2
20260904000440 25 232 0.0 0.0 0.00 1.52 1.52 84 1010.2
20260904000418 25 232 0.0 0.0 0.00 1.52 1.52 83 1010.2
20260904000318 25 232 0.0 0.0 0.00 1.52 1.52 83 1010.2
20260904000215 25 232 0.0 0.0 0.00 1.52 1.52 83 1010.2
20260904000203 26 232 0.0 0.0 0.00 1.52 1.52 82 1010.1
20260904000115 25 232 0.0 0.0 0.00 1.52 1.52 83 1010.2
20260904000048 26 232 0.0 0.0 0.00 1.52 1.52 83 1010.2
20260904000019 26 232 0.0 0.0 0.00 1.52 1.52 82 1010.1
20260903235914 26 232 0.0 0.0 0.00 1.52 1.52 82 1010.1
20260903235812 26 232 0.0 0.0 0.00 1.52 1.52 82 1010.1
20260903235712 26 232 0.0 0.0 0.00 1.52 1.52 82 1010.1
20260903235610 26 232 0.0 0.0 0.00 1.52 1.52 82 1010.0
20260903235519 26 232 0.0 0.0 0.00 1.52 1.52 82 1010.1
20260903235510 26 232 0.0 0.0 0.00 1.52 1.52 82 1010.1
20260903235410 26 232 0.0 0.0 0.00 1.52 1.52 82 1010.1
20260903235310 26 232 0.0 0.0 0.00 1.52 1.52 81 1010.1
20260903235209 26 232 0.0 0.0 0.00 1.52 1.52 81 1010.2
20260903235108 26 232 0.0 0.0 0.00 1.52 1.52 81 1010.1
20260903235019 26 232 0.0 0.0 0.00 1.52 1.52 81 1010.1
20260903235008 26 232 0.0 0.0 0.00 1.52 1.52 81 1010.1
20260903234939 26 232 0.0 0.0 0.00 1.52 1.52 81 1010.1
20260903234906 26 232 0.0 0.0 0.00 1.52 1.52 81 1010.1
20260903234806 26 232 0.0 0.0 0.00 1.52 1.52 81 1010.1
20260903234720 26 232 0.0 0.0 0.00 1.52 1.52 81 1010.1
20260903234715 26 232 0.0 0.0 0.00 1.52 1.52 81 1010.1
20260903234519 26 232 0.0 0.0 0.00 1.52 1.52 80 1010.1
20260903234506 26 232 0.0 0.0 0.00 1.52 1.52 80 1010.1
20260903234437 26 232 0.0 0.0 0.00 1.52 1.52 80 1010.1
20260903234405 26 232 0.0 0.0 0.00 1.52 1.52 80 1010.2
20260903234305 26 232 0.0 0.0 0.00 1.52 1.52 81 1010.3
20260903234204 26 232 0.0 0.0 0.00 1.52 1.52 81 1010.3
20260903234152 26 232 0.0 0.0 0.00 1.52 1.52 81 1010.4
20260903234049 27 232 0.0 0.0 0.00 1.52 1.52 80 1010.3
20260903234030 26 232 0.0 0.0 0.00 1.52 1.52 80 1010.3
20260903233810 27 232 0.0 0.0 0.00 1.52 1.52 80 1010.4
20260903233616 27 232 0.0 0.0 0.00 1.52 1.52 80 1010.4
20260903233610 27 232 0.0 0.0 0.00 1.52 1.52 80 1010.4
20260903233519 27 232 0.0 0.0 0.00 1.52 1.52 80 1010.4
20260903233435 27 232 0.0 0.0 0.00 1.52 1.52 80 1010.4
20260903233401 27 232 0.0 0.0 0.00 1.52 1.52 80 1010.4
20260903233300 27 232 0.0 0.0 0.00 1.52 1.52 80 1010.4
20260903233200 27 232 0.0 0.0 0.00 1.52 1.52 80 1010.4
20260903233059 27 232 0.0 0.0 0.00 1.52 1.52 80 1010.4
20260903233034 27 232 0.0 0.0 0.00 1.52 1.52 80 1010.4
20260903232933 27 232 0.0 0.0 0.00 1.52 1.52 80 1010.4
20260903232858 27 232 0.0 0.0 0.00 1.52 1.52 79 1010.5
20260903232758 27 232 0.0 0.0 0.00 1.52 1.52 79 1010.4
20260903232702 27 232 0.0 0.0 0.00 1.52 1.52 79 1010.4
20260903232658 27 232 0.0 0.0 0.00 1.52 1.52 79 1010.4
20260903232557 27 232 0.0 0.0 0.00 1.52 1.52 79 1010.4
20260903232539 27 232 0.0 0.0 0.00 1.52 1.52 79 1010.4
20260903232519 27 232 0.0 0.0 0.00 1.52 1.52 79 1010.4
20260903232356 27 232 0.0 0.0 0.00 1.52 1.52 79 1010.3
20260903232255 27 232 0.0 0.0 0.00 1.52 1.52 79 1010.3
20260903232157 27 232 0.0 0.0 0.00 1.52 1.52 78 1010.3
20260903232150 27 232 0.0 0.0 0.00 1.52 1.52 78 1010.4
20260903232055 27 232 0.0 0.0 0.00 1.52 1.52 78 1010.4
20260903232038 27 232 0.0 0.0 0.00 1.52 1.52 78 1010.4
20260903232019 27 232 0.0 0.0 0.00 1.52 1.52 78 1010.3
20260903231853 27 232 0.0 0.0 0.00 1.52 1.52 77 1010.4
20260903231753 27 232 0.0 0.0 0.00 1.52 1.52 77 1010.4
20260903231653 28 232 0.0 0.0 0.00 1.52 1.52 77 1010.4
20260903231552 28 232 0.0 0.0 0.00 1.52 1.52 77 1010.4
20260903231519 28 232 0.0 0.0 0.00 1.52 1.52 77 1010.3
20260903231430 28 232 0.0 0.0 0.00 1.52 1.52 76 1010.4
20260903231351 28 232 0.0 0.0 0.00 1.52 1.52 76 1010.3
20260903231251 28 232 0.0 0.0 0.00 1.52 1.52 76 1010.3
20260903231153 28 232 0.0 0.0 0.00 1.52 1.52 76 1010.3
20260903231146 28 232 0.0 0.0 0.00 1.52 1.52 76 1010.3
20260903231051 28 232 0.0 0.0 0.00 1.52 1.52 76 1010.3
20260903231035 28 232 0.0 0.0 0.00 1.52 1.52 76 1010.3
20260903230848 28 232 0.0 0.0 0.00 1.52 1.52 75 1010.4
20260903230748 28 232 0.0 0.0 0.00 1.52 1.52 75 1010.3
20260903230648 28 232 0.0 0.0 0.00 1.52 1.52 74 1010.4
20260903230547 28 232 0.0 0.0 0.00 1.52 1.52 74 1010.5
20260903230519 28 232 0.0 0.0 0.00 1.52 1.52 74 1010.3
20260903230427 28 232 0.0 0.0 0.00 1.52 1.52 74 1010.4
20260903230408 28 232 0.0 0.0 0.00 1.52 1.52 74 1010.4
20260903230254 28 232 0.0 0.0 0.00 1.52 1.52 74 1010.3
20260903230058 28 232 0.0 0.0 0.00 1.52 1.52 73 1010.1
20260903230052 28 232 0.0 0.0 0.00 1.52 1.52 73 1010.2
20260903230019 28 232 0.0 0.0 0.00 1.52 1.52 73 1010.0
20260903225928 28 232 0.0 0.0 0.00 1.52 1.52 72 1010.1
20260903225842 28 232 0.0 0.0 0.00 1.52 1.52 72 1010.1
20260903225741 28 232 0.0 0.0 0.00 1.52 1.52 72 1010.1
20260903225652 29 232 0.0 0.0 0.00 1.52 1.52 71 1010.1
20260903225641 29 232 0.0 0.0 0.00 1.52 1.52 72 1010.1
20260903225543 29 232 0.0 0.0 0.00 1.52 1.52 71 1010.1
20260903225534 29 232 0.0 0.0 0.00 1.52 1.52 71 1010.1
20260903225519 29 232 0.0 0.0 0.00 1.52 1.52 71 1010.0
20260903225338 29 232 0.0 0.0 0.00 1.52 1.52 71 1010.1
20260903225237 29 232 0.0 0.0 0.00 1.52 1.52 70 1010.1
20260903225149 30 232 0.0 0.0 0.00 1.52 1.52 70 1010.1
20260903225145 29 232 0.0 0.0 0.00 1.52 1.52 71 1010.1
20260903225019 30 232 0.0 0.0 0.00 1.52 1.52 70 1010.0
20260903224927 30 232 0.0 0.0 0.00 1.52 1.52 70 1010.1
20260903224834 30 232 0.0 0.0 0.00 1.52 1.52 70 1010.1
20260903224733 30 232 0.0 0.0 0.00 1.52 1.52 69 1010.2
20260903224633 30 232 0.0 0.0 0.00 1.52 1.52 69 1010.2
20260903224532 30 232 0.0 0.0 0.00 1.52 1.52 68 1010.2
20260903224519 30 232 0.0 0.0 0.00 1.52 1.52 68 1010.1
20260903224427 30 232 0.0 0.0 0.00 1.52 1.52 69 1010.2
20260903224331 30 232 0.0 0.0 0.00 1.52 1.52 68 1010.2
20260903224229 30 232 0.0 0.0 0.00 1.52 1.52 67 1010.2
20260903224129 30 232 0.0 0.0 0.00 1.52 1.52 67 1010.2
20260903224029 30 232 0.0 0.0 0.00 1.52 1.52 67 1010.2
20260903224019 30 232 0.0 0.0 0.00 1.52 1.52 67 1010.1
20260903223928 30 232 0.0 0.0 0.00 1.52 1.52 67 1010.2
20260903223826 30 232 0.0 0.0 0.00 1.52 1.52 66 1010.2
20260903223726 30 288 0.0 0.0 0.00 1.52 1.52 67 1010.0
20260903223624 30 280 0.0 0.0 0.00 1.52 1.52 67 1010.0
20260903223552 30 280 0.0 0.0 0.00 1.52 1.52 67 1009.9
20260903223534 30 280 0.0 0.0 0.00 1.52 1.52 67 1009.7
20260903223433 30 280 0.0 0.0 0.00 1.52 1.52 67 1009.8
20260903223234 30 280 0.0 0.0 0.00 1.52 1.52 66 1009.9
20260903223230 30 280 0.0 0.0 0.00 1.52 1.52 67 1009.9
20260903223034 30 280 0.0 0.0 0.00 1.52 1.52 67 1009.9
20260903223025 30 280 0.0 0.0 0.00 1.52 1.52 67 1009.9
20260903223019 30 280 0.0 0.0 0.00 1.52 1.52 67 1009.8
20260903222833 30 280 0.0 0.0 0.00 1.52 1.52 67 1009.9
20260903222828 30 280 0.0 0.0 0.00 1.52 1.52 67 1009.9
20260903222632 30 280 0.0 0.0 0.00 1.52 1.52 66 1009.8
20260903222627 30 280 0.0 0.0 0.00 1.52 1.52 67 1009.8
20260903222519 30 280 0.0 0.0 0.00 1.52 1.52 66 1009.8
20260903222417 30 280 0.0 0.0 0.00 1.52 1.52 66 1009.9
20260903222316 30 280 0.0 0.0 0.00 1.52 1.52 66 1010.0
20260903222216 30 280 0.0 0.0 0.00 1.52 1.52 66 1010.0
20260903222129 30 290 0.0 0.0 0.00 1.52 1.52 66 1010.0
20260903222124 30 280 0.0 0.0 0.00 1.52 1.52 66 1010.0
20260903222019 30 294 0.0 0.0 0.00 1.52 1.52 66 1009.9
20260903221914 30 294 0.0 0.0 0.00 1.52 1.52 66 1010.0
20260903221814 30 294 0.0 0.0 0.00 1.52 1.52 66 1010.0
20260903221714 30 294 0.0 0.0 0.00 1.52 1.52 66 1010.0
20260903221613 30 294 0.0 0.0 0.00 1.52 1.52 67 1010.0
20260903221534 30 294 0.0 0.0 0.00 1.52 1.52 66 1009.9
20260903221513 30 294 0.0 0.0 0.00 1.52 1.52 66 1010.0
20260903221413 30 294 0.0 0.0 0.00 1.52 1.52 66 1010.0
20260903221312 30 294 0.0 0.0 0.00 1.52 1.52 66 1010.0
20260903221211 30 294 0.0 0.0 0.00 1.52 1.52 66 1010.0
20260903221149 30 295 0.0 0.0 0.00 1.52 1.52 65 1010.1
20260903221145 30 295 0.0 0.0 0.00 1.52 1.52 66 1010.0
20260903221140 30 294 0.0 0.0 0.00 1.52 1.52 66 1010.0
20260903221019 30 295 0.0 0.0 0.00 1.52 1.52 66 1010.0
20260903220910 30 295 0.0 0.0 0.00 1.52 1.52 65 1010.1
20260903220824 30 260 0.0 0.0 0.00 1.52 1.52 66 1010.0
20260903220819 30 237 0.0 0.0 0.00 1.52 1.52 66 1010.1
20260903220647 30 259 0.0 0.0 0.00 1.52 1.52 66 1010.0
20260903220642 30 260 0.0 0.0 0.00 1.52 1.52 66 1010.0
20260903220637 30 260 0.0 0.0 0.00 1.52 1.52 66 1010.0
20260903220519 30 260 0.0 0.0 0.00 1.52 1.52 66 1009.9
20260903220408 30 260 0.0 0.0 0.00 1.52 1.52 66 1010.0
20260903220308 30 259 0.0 0.0 0.00 1.52 1.52 66 1010.0
20260903220207 30 259 0.0 0.0 0.00 1.52 1.52 66 1010.0
20260903220107 30 259 0.0 0.0 0.00 1.52 1.52 66 1009.9
20260903220019 30 259 0.0 0.0 0.00 1.52 1.52 66 1009.8
20260903220007 30 259 0.0 0.0 0.00 1.52 1.52 66 1009.9
20260903215919 30 259 0.0 0.0 0.00 1.52 1.52 66 1009.9
20260903215904 30 259 0.0 0.0 0.00 1.52 1.52 66 1009.8
20260903215804 30 259 0.0 0.0 0.00 1.52 1.52 66 1009.8
20260903215703 30 259 0.0 0.0 0.00 1.52 1.52 66 1009.7
20260903215614 30 259 0.0 0.0 0.00 1.52 1.52 65 1009.7
20260903215609 30 259 0.0 0.0 0.00 1.52 1.52 65 1009.7
20260903215519 30 259 0.0 0.0 0.00 1.52 1.52 65 1009.6
20260903215417 30 259 0.0 0.0 0.00 1.52 1.52 65 1009.7
20260903215359 30 259 0.0 0.0 0.00 1.52 1.52 65 1009.7
20260903215259 30 259 0.0 0.0 0.00 1.52 1.52 65 1009.6
20260903215159 30 259 0.0 0.0 0.00 1.52 1.52 65 1009.6
20260903215057 30 259 0.0 0.0 0.00 1.52 1.52 65 1009.7
20260903215019 30 259 0.0 0.0 0.00 1.52 1.52 65 1009.6
20260903215017 30 259 0.0 0.0 0.00 1.52 1.52 64 1009.7
20260903215012 30 259 0.0 0.0 0.00 1.52 1.52 65 1009.7
20260903215004 30 259 0.0 0.0 0.00 1.52 1.52 64 1009.7
20260903214757 30 259 0.0 0.0 0.00 1.52 1.52 65 1009.8
20260903214654 30 259 0.0 0.0 0.00 1.52 1.52 65 1009.8
20260903214643 31 259 0.0 0.0 0.00 1.52 1.52 65 1009.7
20260903214554 31 259 0.0 0.0 0.00 1.52 1.52 65 1009.8
20260903214524 31 259 0.0 0.0 0.00 1.52 1.52 65 1009.7
20260903214519 31 259 0.0 0.0 0.00 1.52 1.52 65 1009.6
20260903214354 31 259 0.0 0.0 0.00 1.52 1.52 65 1009.7
20260903214253 31 259 0.0 0.0 0.00 1.52 1.52 64 1009.7
20260903214152 31 259 0.0 0.0 0.00 1.52 1.52 64 1009.6
20260903214141 31 257 0.0 0.0 0.00 1.52 1.52 64 1009.7
20260903214052 31 259 0.0 0.0 0.00 1.52 1.52 64 1009.7
20260903214022 31 259 0.0 0.0 0.00 1.52 1.52 64 1009.7
20260903214019 31 259 0.0 0.0 0.00 1.52 1.52 64 1009.6
20260903213850 31 257 0.0 0.0 0.00 1.52 1.52 64 1009.7
20260903213750 31 257 0.0 0.0 0.00 1.52 1.52 64 1009.7
20260903213650 31 257 0.0 0.0 0.00 1.52 1.52 64 1009.6
20260903213549 31 257 0.0 0.0 0.00 1.52 1.52 63 1009.6
20260903213520 31 257 0.0 0.0 0.00 1.52 1.52 63 1009.4
20260903213449 31 257 0.0 0.0 0.00 1.52 1.52 65 1009.5
20260903213412 31 257 0.0 0.0 0.00 1.52 1.52 65 1009.5
20260903213400 31 257 0.0 1.6 0.00 1.52 1.52 63 1009.4
20260903213355 31 257 0.0 0.0 0.00 1.52 1.52 64 1009.5
20260903213146 31 257 0.0 3.2 0.00 1.52 1.52 63 1009.4
20260903213045 31 257 0.0 3.2 0.00 1.52 1.52 63 1009.3
20260903213034 31 257 0.0 3.2 0.00 1.52 1.52 63 1009.2
20260903212945 31 257 0.0 3.2 0.00 1.52 1.52 62 1009.3
20260903212912 31 257 0.0 3.2 0.00 1.52 1.52 62 1009.3
20260903212841 31 257 1.6 4.8 0.00 1.52 1.52 62 1009.3
20260903212742 31 257 1.6 9.7 0.00 1.52 1.52 62 1009.4
20260903212656 31 257 1.6 9.7 0.00 1.52 1.52 62 1009.4
20260903212650 31 257 1.6 9.7 0.00 1.52 1.52 62 1009.4
20260903212519 31 257 0.0 9.7 0.00 1.52 1.52 63 1009.4
20260903212511 31 257 1.6 9.7 0.00 1.52 1.52 62 1009.5
20260903212505 31 257 1.6 9.7 0.00 1.52 1.52 63 1009.5
20260903212457 31 257 1.6 9.7 0.00 1.52 1.52 63 1009.5
20260903212451 31 257 1.6 9.7 0.00 1.52 1.52 63 1009.5
20260903212228 31 257 1.6 9.7 0.00 1.52 1.52 62 1009.4
20260903212019 31 257 1.6 9.7 0.00 1.52 1.52 62 1009.4
20260903212007 31 259 1.6 4.8 0.00 1.52 1.52 62 1009.6
20260903212001 31 257 1.6 9.7 0.00 1.52 1.52 62 1009.5
20260903211953 31 257 1.6 9.7 0.00 1.52 1.52 61 1009.5
20260903211636 31 259 1.6 4.8 0.00 1.52 1.52 62 1009.6
20260903211536 31 259 1.6 9.7 0.00 1.52 1.52 62 1009.6
20260903211520 31 259 3.2 9.7 0.00 1.52 1.52 62 1009.5
20260903211435 31 266 1.6 9.7 0.00 1.52 1.52 62 1009.6
20260903211407 31 266 1.6 9.7 0.00 1.52 1.52 61 1009.6
20260903211335 31 266 1.6 9.7 0.00 1.52 1.52 61 1009.6
20260903211244 31 275 1.6 9.7 0.00 1.52 1.52 62 1009.6
20260903211235 31 275 1.6 9.7 0.00 1.52 1.52 62 1009.6
20260903211033 31 275 1.6 9.7 0.00 1.52 1.52 61 1009.6
20260903211019 31 275 1.6 9.7 0.00 1.52 1.52 61 1009.6
20260903211015 31 275 1.6 9.7 0.00 1.52 1.52 61 1009.7
20260903210846 31 275 3.2 9.7 0.00 1.52 1.52 60 1009.7
20260903210840 31 275 1.6 9.7 0.00 1.52 1.52 62 1009.7
20260903210631 31 278 1.6 9.7 0.00 1.52 1.52 62 1009.7
20260903210529 31 255 3.2 8.0 0.00 1.52 1.52 62 1009.7
20260903210519 31 254 1.6 9.7 0.00 1.52 1.52 62 1009.6
20260903210407 31 254 3.2 9.7 0.00 1.52 1.52 62 1009.7
20260903210329 31 254 3.2 9.7 0.00 1.52 1.52 62 1009.7
20260903210229 31 254 3.2 9.7 0.00 1.52 1.52 61 1009.7
20260903210217 31 254 4.8 11.3 0.00 1.52 1.52 61 1009.7
20260903210213 31 254 4.8 11.3 0.00 1.52 1.52 61 1009.8
20260903210209 31 254 4.8 11.3 0.00 1.52 1.52 60 1009.8
20260903210202 31 254 3.2 9.7 0.00 1.52 1.52 60 1009.7
20260903210044 31 254 4.8 11.3 0.00 1.52 1.52 61 1009.8
20260903210019 31 254 1.6 9.7 0.00 1.52 1.52 61 1009.7
20260903205729 31 242 4.8 11.3 0.00 1.52 1.52 60 1009.8
20260903205627 31 236 4.8 11.3 0.00 1.52 1.52 59 1009.8
20260903205534 31 282 4.8 9.7 0.00 1.52 1.52 59 1009.6
20260903205527 31 261 4.8 11.3 0.00 1.52 1.52 59 1009.8
20260903205426 31 315 4.8 11.3 0.00 1.52 1.52 60 1009.8
20260903205405 31 268 4.8 11.3 0.00 1.52 1.52 60 1009.8
20260903205326 31 268 4.8 11.3 0.00 1.52 1.52 60 1009.8
20260903205226 31 281 3.2 11.3 0.00 1.52 1.52 60 1009.8
20260903205125 31 284 3.2 11.3 0.00 1.52 1.52 60 1009.8
20260903205024 31 278 3.2 9.7 0.00 1.52 1.52 60 1009.9
20260903205019 31 278 4.8 9.7 0.00 1.52 1.52 60 1009.6
20260903204924 31 279 3.2 9.7 0.00 1.52 1.52 61 1009.8
20260903204905 31 280 3.2 9.7 0.00 1.52 1.52 61 1009.8
20260903204837 31 308 3.2 8.0 0.00 1.52 1.52 60 1009.9
20260903204832 31 163 3.2 8.0 0.00 1.52 1.52 60 1009.8
20260903204621 31 311 3.2 8.0 0.00 1.52 1.52 60 1009.9
20260903204521 31 257 1.6 6.4 0.00 1.52 1.52 61 1009.8
20260903204519 31 259 4.8 6.4 0.00 1.52 1.52 61 1009.7
20260903204419 31 229 1.6 6.4 0.00 1.52 1.52 60 1009.9
20260903204405 31 229 1.6 6.4 0.00 1.52 1.52 60 1009.8
20260903204318 31 229 3.2 6.4 0.00 1.52 1.52 60 1009.8
20260903204218 31 229 3.2 6.4 0.00 1.52 1.52 60 1009.9
20260903204140 31 231 3.2 9.7 0.00 1.52 1.52 59 1009.9
20260903204034 31 252 1.6 9.7 0.00 1.52 1.52 60 1009.7
20260903204026 31 252 3.2 9.7 0.00 1.52 1.52 60 1009.9
20260903203911 31 251 3.2 9.7 0.00 1.52 1.52 60 1009.9
20260903203903 31 256 3.2 9.7 0.00 1.52 1.52 61 1009.9
20260903203752 31 259 3.2 9.7 0.00 1.52 1.52 61 1009.9
20260903203746 31 258 3.2 9.7 0.00 1.52 1.52 61 1009.8
20260903203741 31 254 3.2 9.7 0.00 1.52 1.52 60 1009.8
20260903203519 31 259 1.6 9.7 0.00 1.52 1.52 60 1009.6
20260903203404 31 233 3.2 9.7 0.00 1.52 1.52 61 1009.8
20260903203313 31 260 3.2 9.7 0.00 1.52 1.52 60 1009.9
20260903203212 31 260 3.2 9.7 0.00 1.52 1.52 60 1009.9
20260903203112 31 263 3.2 9.7 0.00 1.52 1.52 61 1009.9
20260903203019 31 267 3.2 6.4 0.00 1.52 1.52 60 1009.7
20260903203012 31 267 3.2 6.4 0.00 1.52 1.52 60 1009.9
20260903202904 31 267 3.2 6.4 0.00 1.52 1.52 60 1009.9
20260903202810 31 268 3.2 9.7 0.00 1.52 1.52 61 1009.9
20260903202710 31 269 3.2 9.7 0.00 1.52 1.52 62 1009.9
20260903202609 31 213 3.2 9.7 0.00 1.52 1.52 63 1009.8
20260903202534 31 275 3.2 9.7 0.00 1.52 1.52 62 1009.7
20260903202525 31 280 1.6 9.7 0.00 1.52 1.52 64 1009.8
20260903202520 31 282 3.2 9.7 0.00 1.52 1.52 62 1009.8
20260903202404 31 280 1.6 9.7 0.00 1.52 1.52 64 1009.8
20260903202321 31 288 1.6 9.7 0.00 1.52 1.52 64 1009.9
20260903202316 31 280 1.6 9.7 0.00 1.52 1.52 63 1009.8
20260903202120 31 291 1.6 9.7 0.00 1.52 1.52 63 1009.9
20260903202115 31 291 1.6 9.7 0.00 1.52 1.52 63 1009.9
20260903202019 31 291 1.6 9.7 0.00 1.52 1.52 63 1009.8
20260903201906 31 244 1.6 9.7 0.00 1.52 1.52 63 1009.9
20260903201803 31 280 1.6 6.4 0.00 1.52 1.52 63 1009.9
20260903201717 31 280 1.6 6.4 0.00 1.52 1.52 61 1010.0
20260903201712 31 280 1.6 6.4 0.00 1.52 1.52 62 1010.0
20260903201549 31 282 3.2 6.4 0.00 1.52 1.52 61 1009.8
20260903201502 31 282 1.6 6.4 0.00 1.52 1.52 61 1009.9
20260903201407 31 282 1.6 6.4 0.00 1.52 1.52 61 1009.9
20260903201402 31 282 1.6 6.4 0.00 1.52 1.52 61 1009.9
20260903201300 31 282 1.6 12.9 0.00 1.52 1.52 61 1009.9
20260903201200 31 246 1.6 12.9 0.00 1.52 1.52 62 1010.0
20260903201147 31 243 1.6 12.9 0.00 1.52 1.52 61 1010.0
20260903201143 31 243 1.6 12.9 0.00 1.52 1.52 62 1010.0
20260903201138 31 243 1.6 12.9 0.00 1.52 1.52 61 1010.0
20260903201132 31 243 1.6 12.9 0.00 1.52 1.52 62 1010.1
20260903201020 31 243 1.6 12.9 0.00 1.52 1.52 62 1009.8
20260903200908 31 243 1.6 12.9 0.00 1.52 1.52 61 1010.0
20260903200659 31 244 1.6 12.9 0.00 1.52 1.52 61 1010.0
20260903200557 31 243 1.6 12.9 0.00 1.52 1.52 62 1010.1
20260903200519 31 243 0.0 12.9 0.00 1.52 1.52 61 1009.8
20260903200457 31 243 1.6 12.9 0.00 1.52 1.52 61 1010.0
20260903200403 31 242 1.6 12.9 0.00 1.52 1.52 61 1010.0
20260903200356 31 242 1.6 12.9 0.00 1.52 1.52 61 1010.0
20260903200256 31 246 1.6 4.8 0.00 1.52 1.52 62 1010.0
20260903200156 31 245 1.6 4.8 0.00 1.52 1.52 62 1010.0
20260903200107 31 245 1.6 6.4 0.00 1.52 1.52 63 1010.0
20260903200034 31 245 3.2 6.4 0.00 1.52 1.52 63 1009.8
20260903195913 31 246 3.2 6.4 0.00 1.52 1.52 62 1009.9
20260903195902 31 246 1.6 6.4 0.00 1.52 1.52 62 1009.9
20260903195651 31 247 3.2 12.9 0.00 1.52 1.52 62 1010.0
20260903195616 31 221 3.2 12.9 0.00 1.52 1.52 61 1009.9
20260903195551 31 247 3.2 12.9 0.00 1.52 1.52 62 1010.0
20260903195519 31 221 0.0 12.9 0.00 1.52 1.52 62 1009.9
20260903195507 31 221 3.2 12.9 0.00 1.52 1.52 62 1010.0
20260903195351 31 221 3.2 12.9 0.00 1.52 1.52 61 1009.9
20260903195251 31 221 4.8 12.9 0.00 1.52 1.52 60 1010.0
20260903195150 31 212 3.2 12.9 0.00 1.52 1.52 60 1010.0
20260903195050 31 265 4.8 12.9 0.00 1.52 1.52 60 1010.0
20260903195019 31 182 6.4 17.7 0.00 1.52 1.52 61 1009.9
20260903195003 31 233 4.8 17.7 0.00 1.52 1.52 60 1010.0
20260903194955 31 232 4.8 17.7 0.00 1.52 1.52 60 1010.1
20260903194802 31 248 3.2 17.7 0.00 1.52 1.52 59 1010.1
20260903194756 31 233 4.8 17.7 0.00 1.52 1.52 60 1010.1
20260903194549 31 218 3.2 17.7 0.00 1.52 1.52 60 1010.0
20260903194547 31 220 3.2 17.7 0.00 1.52 1.52 60 1010.1
20260903194446 31 219 3.2 17.7 0.00 1.52 1.52 60 1010.2
20260903194357 31 253 3.2 17.7 0.00 1.52 1.52 60 1010.2
20260903194346 31 253 3.2 17.7 0.00 1.52 1.52 59 1010.2
20260903194246 31 258 1.6 17.7 0.00 1.52 1.52 60 1010.2
20260903194144 31 298 1.6 17.7 0.00 1.52 1.52 60 1010.2
20260903194058 31 251 0.0 12.9 0.00 1.52 1.52 60 1010.2
20260903194053 31 251 1.6 17.7 0.00 1.52 1.52 59 1010.2
20260903194019 32 271 6.4 12.9 0.00 1.52 1.52 60 1010.1
20260903193857 32 263 0.0 9.7 0.00 1.52 1.52 60 1010.3
20260903193843 31 285 0.0 6.4 0.00 1.52 1.52 59 1010.3
20260903193756 32 302 0.0 3.2 0.00 1.52 1.52 59 1010.3
20260903193751 32 302 0.0 3.2 0.00 1.52 1.52 59 1010.3
20260903193549 32 223 0.0 0.0 0.00 1.52 1.52 58 1010.2
20260903193541 32 307 0.0 0.0 0.00 1.52 1.52 59 1010.3
20260903193438 32 223 0.0 0.0 0.00 1.52 1.52 58 1010.3
20260903193357 32 234 0.0 0.0 0.00 1.52 1.52 60 1010.3
20260903193338 32 223 0.0 0.0 0.00 1.52 1.52 61 1010.3
20260903193238 32 229 0.0 0.0 0.00 1.52 1.52 60 1010.3
20260903193137 32 269 0.0 0.0 0.00 1.52 1.52 60 1010.3
20260903193037 32 283 0.0 0.0 0.00 1.52 1.52 60 1010.3
20260903193019 32 284 0.0 0.0 0.00 1.52 1.52 59 1010.2
20260903192936 32 284 0.0 0.0 0.00 1.52 1.52 59 1010.3
20260903192856 32 286 0.0 0.0 0.00 1.52 1.52 59 1010.4
20260903192836 32 291 0.0 0.0 0.00 1.52 1.52 59 1010.4
20260903192735 32 250 0.0 0.0 0.00 1.52 1.52 59 1010.3
20260903192635 32 172 0.0 0.0 0.00 1.52 1.52 59 1010.4
20260903192618 32 220 0.0 0.0 0.00 1.52 1.52 59 1010.5
20260903192535 32 168 0.0 0.0 0.00 1.52 1.52 58 1010.4
20260903192519 32 246 0.0 0.0 0.00 1.52 1.52 60 1010.4
20260903192503 32 244 0.0 0.0 0.00 1.52 1.52 60 1010.5
20260903192334 32 220 0.0 0.0 0.00 1.52 1.52 59 1010.5
20260903192234 32 184 0.0 0.0 0.00 1.52 1.52 60 1010.5
20260903192133 32 266 0.0 0.0 0.00 1.52 1.52 60 1010.5
20260903192033 32 272 0.0 0.0 0.00 1.52 1.52 60 1010.5
20260903192019 32 201 0.0 0.0 0.00 1.52 1.52 60 1010.3
20260903191932 32 200 0.0 0.0 0.00 1.52 1.52 58 1010.4
20260903191854 32 234 0.0 0.0 0.00 1.52 1.52 59 1010.5
20260903191832 32 245 0.0 0.0 0.00 1.52 1.52 59 1010.5
20260903191732 32 270 0.0 0.0 0.00 1.52 1.52 58 1010.5
20260903191632 32 281 0.0 0.0 0.00 1.52 1.52 60 1010.6
20260903191545 32 289 0.0 0.0 0.00 1.52 1.52 58 1010.6
20260903191540 32 297 0.0 0.0 0.00 1.52 1.52 59 1010.6
20260903191519 32 319 0.0 0.0 0.00 1.52 1.52 59 1010.5
20260903191354 32 243 0.0 0.0 0.00 1.52 1.52 60 1010.6
20260903191330 32 286 0.0 0.0 0.00 1.52 1.52 60 1010.6
20260903191229 32 292 0.0 0.0 0.00 1.52 1.52 59 1010.7
20260903191129 32 244 0.0 0.0 0.00 1.52 1.52 59 1010.7
20260903191029 32 256 0.0 0.0 0.00 1.52 1.52 58 1010.7
20260903191019 32 257 0.0 0.0 0.00 1.52 1.52 58 1010.6
20260903190927 32 234 0.0 0.0 0.00 1.52 1.52 61 1010.7
20260903190853 32 228 0.0 0.0 0.00 1.52 1.52 60 1010.8
20260903190827 32 229 0.0 0.0 0.00 1.52 1.52 60 1010.8
20260903190727 32 248 0.0 0.0 0.00 1.52 1.52 60 1010.8
20260903190626 32 244 0.0 0.0 0.00 1.52 1.52 58 1010.8
20260903190525 32 192 0.0 0.0 0.00 1.52 1.52 60 1010.8
20260903190519 32 192 0.0 0.0 0.00 1.52 1.52 60 1010.7
20260903190426 32 192 0.0 0.0 0.00 1.52 1.52 61 1010.8
20260903190351 32 240 0.0 0.0 0.00 1.52 1.52 61 1010.8
20260903190325 32 163 0.0 0.0 0.00 1.52 1.52 60 1010.8
20260903190225 32 162 0.0 0.0 0.00 1.52 1.52 61 1010.8
20260903190125 31 190 0.0 0.0 0.00 1.52 1.52 59 1010.9
20260903190024 31 176 0.0 0.0 0.00 1.52 1.52 60 1010.8
20260903190019 32 196 0.0 0.0 0.00 1.52 1.52 60 1010.7
20260903185942 31 298 0.0 0.0 0.00 1.52 1.52 60 1010.8
20260903185937 31 196 0.0 0.0 0.00 1.52 1.52 60 1010.8
20260903185929 31 281 0.0 0.0 0.00 1.52 1.52 60 1010.8
20260903185720 31 259 0.0 0.0 0.00 1.52 1.52 61 1010.8
20260903185620 31 265 0.0 0.0 0.00 1.52 1.52 61 1010.8
20260903185609 31 170 0.0 0.0 0.00 1.52 1.52 61 1010.8
20260903185520 31 265 0.0 0.0 0.00 1.52 1.52 60 1010.8
20260903185458 31 194 0.0 0.0 0.00 1.52 1.52 61 1010.7
20260903185319 31 170 0.0 0.0 0.00 1.52 1.52 60 1010.8
20260903185217 31 221 0.0 0.0 0.00 1.52 1.52 61 1010.7
20260903185131 31 202 0.0 0.0 0.00 1.52 1.52 60 1010.7
20260903185126 31 186 0.0 0.0 0.00 1.52 1.52 61 1010.7
20260903185019 31 211 0.0 0.0 0.00 1.52 1.52 60 1010.7
20260903184916 31 269 0.0 0.0 0.00 1.52 1.52 59 1010.8
20260903184850 31 275 0.0 0.0 0.00 1.52 1.52 59 1010.7
20260903184816 31 274 0.0 0.0 0.00 1.52 1.52 60 1010.7
20260903184715 31 279 0.0 0.0 0.00 1.52 1.52 60 1010.9
20260903184614 31 311 0.0 0.0 0.00 1.52 1.52 59 1010.9
20260903184519 32 265 0.0 0.0 0.00 1.52 1.52 59 1010.9
20260903184514 32 319 0.0 0.0 0.00 1.52 1.52 59 1010.9
20260903184433 32 218 0.0 0.0 0.00 1.52 1.52 58 1011.0
20260903184427 32 327 0.0 0.0 0.00 1.52 1.52 59 1011.0
20260903184421 32 268 0.0 0.0 0.00 1.52 1.52 59 1011.0
20260903184213 32 258 0.0 0.0 0.00 1.52 1.52 61 1011.0
20260903184112 32 192 0.0 0.0 0.00 1.52 1.52 61 1011.0
20260903184026 32 134 0.0 0.0 0.00 1.52 1.52 60 1011.1
20260903184021 32 246 0.0 0.0 0.00 1.52 1.52 60 1011.1
20260903184019 32 250 0.0 0.0 0.00 1.52 1.52 60 1011.0
20260903183849 32 130 0.0 0.0 0.00 1.52 1.52 61 1011.1
20260903183810 32 261 0.0 0.0 0.00 1.52 1.52 61 1011.1
20260903183711 32 321 0.0 0.0 0.00 1.52 1.52 61 1011.0
20260903183613 32 286 0.0 0.0 0.00 1.52 1.52 61 1011.1
20260903183607 32 268 0.0 0.0 0.00 1.52 1.52 62 1011.1
20260903183600 32 292 0.0 0.0 0.00 1.52 1.52 60 1011.1
20260903183534 32 292 0.0 0.0 0.00 1.52 1.52 60 1011.0
20260903183447 32 205 0.0 0.0 0.00 1.52 1.52 62 1011.1
20260903183440 32 329 0.0 0.0 0.00 1.52 1.52 63 1011.1
20260903183329 32 267 0.0 0.0 0.00 1.52 1.52 63 1011.1
20260903183019 32 273 0.0 0.0 0.00 1.52 1.52 62 1010.9
20260903183010 31 272 0.0 0.0 0.00 1.52 1.52 62 1011.0
20260903182955 31 284 0.0 0.0 0.00 1.52 1.52 63 1011.0
20260903182809 31 216 0.0 0.0 0.00 1.52 1.52 63 1011.0
20260903182706 31 268 0.0 0.0 0.00 1.52 1.52 63 1010.9
20260903182607 31 265 0.0 0.0 0.00 1.52 1.52 62 1011.0
20260903182519 31 268 0.0 0.0 0.00 1.52 1.52 62 1010.8
20260903182507 31 268 0.0 0.0 0.00 1.52 1.52 62 1011.0
20260903182406 31 254 0.0 0.0 0.00 1.52 1.52 62 1011.0
20260903182346 31 254 0.0 0.0 0.00 1.52 1.52 62 1010.9
20260903182307 31 207 0.0 0.0 0.00 1.52 1.52 62 1010.9
20260903182205 31 286 0.0 0.0 0.00 1.52 1.52 63 1010.9
20260903182119 31 266 0.0 0.0 0.00 1.52 1.52 62 1010.9
20260903182115 31 286 0.0 0.0 0.00 1.52 1.52 62 1010.9
20260903182019 31 273 0.0 0.0 0.00 1.52 1.52 62 1010.8
20260903181904 31 232 0.0 0.0 0.00 1.52 1.52 62 1011.0
20260903181844 31 243 0.0 0.0 0.00 1.52 1.52 62 1011.0
20260903181804 31 241 0.0 0.0 0.00 1.52 1.52 63 1011.0
20260903181703 31 246 0.0 0.0 0.00 1.52 1.52 63 1011.0
20260903181608 31 196 0.0 0.0 0.00 1.52 1.52 62 1011.1
20260903181604 31 246 0.0 0.0 0.00 1.52 1.52 63 1011.0
20260903181556 31 296 0.0 0.0 0.00 1.52 1.52 65 1011.1
20260903181551 31 246 0.0 0.0 0.00 1.52 1.52 63 1011.1
20260903181519 31 246 0.0 0.0 0.00 1.52 1.52 63 1011.0
20260903181434 31 233 0.0 0.0 0.00 1.52 1.52 62 1011.1
20260903181214 31 289 0.0 0.0 0.00 1.52 1.52 63 1011.1
20260903181210 31 232 0.0 0.0 0.00 1.52 1.52 64 1011.1
20260903181019 31 309 0.0 0.0 0.00 1.52 1.52 64 1011.0
20260903181002 31 309 0.0 0.0 0.00 1.52 1.52 64 1011.1
20260903180949 31 289 0.0 0.0 0.00 1.52 1.52 63 1011.1
20260903180800 31 306 0.0 0.0 0.00 1.52 1.52 64 1011.2
20260903180718 31 277 0.0 0.0 0.00 1.52 1.52 65 1011.2
20260903180559 31 265 0.0 0.0 0.00 1.52 1.52 64 1011.2
20260903180519 31 254 0.0 0.0 0.00 1.52 1.52 64 1011.0
20260903180459 31 283 0.0 0.0 0.00 1.52 1.52 64 1011.1
20260903180448 31 233 0.0 0.0 0.00 1.52 1.52 65 1011.2
20260903180259 31 316 0.0 0.0 0.00 1.52 1.52 65 1011.2
20260903180159 31 248 0.0 0.0 0.00 1.52 1.52 64 1011.2
20260903180057 31 259 0.0 19.3 0.00 1.52 1.52 64 1011.2
20260903180019 31 238 0.0 19.3 0.00 1.52 1.52 63 1011.2
20260903175957 31 230 1.6 19.3 0.00 1.52 1.52 63 1011.3
20260903175856 31 296 1.6 19.3 0.00 1.52 1.52 63 1011.2
20260903175839 31 302 1.6 19.3 0.00 1.52 1.52 63 1011.2
20260903175808 31 306 1.6 19.3 0.00 1.52 1.52 63 1011.2
20260903175804 31 334 1.6 19.3 0.00 1.52 1.52 63 1011.2
20260903175553 31 311 3.2 19.3 0.00 1.52 1.52 63 1011.3
20260903175534 31 323 0.0 19.3 0.00 1.52 1.52 63 1011.2
20260903175453 31 350 3.2 19.3 0.00 1.52 1.52 63 1011.3
20260903175352 31 316 4.8 19.3 0.00 1.52 1.52 62 1011.3
20260903175339 31 327 4.8 19.3 0.00 1.52 1.52 62 1011.3
20260903175252 31 205 4.8 19.3 0.00 1.52 1.52 62 1011.3
20260903175152 31 277 4.8 19.3 0.00 1.52 1.52 64 1011.3
20260903175104 31 259 4.8 17.7 0.00 1.52 1.52 63 1011.3
20260903175100 31 259 4.8 17.7 0.00 1.52 1.52 64 1011.3
20260903175019 31 259 1.6 17.7 0.00 1.52 1.52 63 1011.2
20260903174850 31 264 4.8 16.1 0.00 1.52 1.52 64 1011.2
20260903174837 31 269 4.8 16.1 0.00 1.52 1.52 64 1011.2
20260903174803 31 269 4.8 16.1 0.00 1.52 1.52 62 1011.2
20260903174759 31 214 4.8 16.1 0.00 1.52 1.52 63 1011.2
20260903174609 31 300 4.8 16.1 0.00 1.52 1.52 62 1011.2
20260903174520 31 323 9.7 12.9 0.00 1.52 1.52 63 1011.1
20260903174456 31 296 4.8 14.5 0.00 1.52 1.52 63 1011.2
20260903174338 31 248 4.8 14.5 0.00 1.52 1.52 64 1011.2
20260903174247 31 248 4.8 14.5 0.00 1.52 1.52 64 1011.2
20260903174220 31 248 4.8 14.5 0.00 1.52 1.52 64 1011.3
20260903174108 31 254 4.8 14.5 0.00 1.52 1.52 65 1011.4
20260903174103 31 246 4.8 14.5 0.00 1.52 1.52 66 1011.3
20260903174019 31 267 9.7 12.9 0.00 1.52 1.52 64 1011.3
20260903173836 31 261 4.8 14.5 0.00 1.52 1.52 65 1011.4
20260903173743 31 278 4.8 14.5 0.00 1.52 1.52 63 1011.4
20260903173642 31 273 4.8 12.9 0.00 1.52 1.52 62 1011.4
20260903173542 31 307 4.8 12.9 0.00 1.55 1.52 62 1011.4
20260903173534 31 265 4.8 12.9 0.00 1.55 1.52 62 1011.3
20260903173457 31 242 3.2 12.9 0.00 1.55 1.52 63 1011.4
20260903173453 31 292 3.2 12.9 0.00 1.55 1.52 64 1011.4
20260903173337 31 242 3.2 12.9 0.00 1.55 1.52 63 1011.4
20260903173242 31 246 4.8 12.9 0.00 1.55 1.52 64 1011.4
20260903173141 31 296 4.8 12.9 0.00 1.55 1.52 62 1011.4
20260903173132 31 232 4.8 16.1 0.00 1.55 1.52 65 1011.5
20260903173040 31 207 4.8 12.9 0.00 1.55 1.52 65 1011.5
20260903173029 31 233 4.8 16.1 0.00 1.55 1.52 64 1011.5
20260903173020 31 238 3.2 16.1 0.00 1.55 1.52 65 1011.4
20260903172802 31 223 4.8 16.1 0.00 1.55 1.52 65 1011.5
20260903172757 31 200 4.8 16.1 0.00 1.55 1.52 65 1011.5
20260903172519 31 221 3.2 16.1 0.00 1.55 1.52 65 1011.4
20260903172453 31 238 4.8 16.1 0.00 1.55 1.52 65 1011.5
20260903172449 31 324 4.8 16.1 0.00 1.55 1.52 64 1011.5
20260903172333 31 238 4.8 16.1 0.00 1.55 1.52 65 1011.5
20260903172237 31 270 4.8 16.1 0.00 1.55 1.52 65 1011.5
20260903172217 31 248 4.8 14.5 0.00 1.55 1.52 65 1011.5
20260903172212 31 263 4.8 16.1 0.00 1.55 1.52 64 1011.5
20260903172058 31 321 4.8 16.1 0.00 1.55 1.52 65 1011.6
20260903172019 31 248 3.2 14.5 0.00 1.55 1.52 64 1011.4
20260903171836 31 287 4.8 16.1 0.00 1.55 1.52 66 1011.6
20260903171734 31 240 4.8 16.1 0.00 1.55 1.52 66 1011.6
20260903171634 30 240 4.8 16.1 0.00 1.55 1.52 65 1011.7
20260903171533 30 258 4.8 16.1 0.00 1.55 1.52 64 1011.7
20260903171519 30 258 4.8 14.5 0.00 1.55 1.52 65 1011.6
20260903171433 30 242 4.8 16.1 0.00 1.55 1.52 65 1011.7
20260903171333 30 242 4.8 16.1 0.00 1.55 1.52 64 1011.7
20260903171231 30 237 4.8 16.1 0.00 1.55 1.52 64 1011.7
20260903171131 30 250 4.8 16.1 0.00 1.55 1.52 64 1011.7
20260903171030 30 294 3.2 16.1 0.00 1.55 1.52 65 1011.7
20260903171019 30 233 1.6 12.9 0.00 1.55 1.52 65 1011.6
20260903170930 30 233 3.2 16.1 0.00 1.55 1.52 65 1011.7
20260903170834 30 269 3.2 16.1 0.00 1.55 1.52 66 1011.7
20260903170829 30 264 3.2 16.1 0.00 1.55 1.52 65 1011.7
20260903170728 30 250 3.2 16.1 0.00 1.55 1.52 68 1011.7
20260903170628 30 254 3.2 16.1 0.00 1.55 1.52 67 1011.8
20260903170528 30 269 3.2 16.1 0.00 1.55 1.52 66 1011.8
20260903170519 30 231 4.8 12.9 0.00 1.55 1.52 68 1011.6
20260903170428 30 241 3.2 16.1 0.00 1.55 1.52 68 1011.7
20260903170327 30 233 4.8 16.1 0.00 1.55 1.52 67 1011.7
20260903170226 30 233 4.8 16.1 0.00 1.55 1.52 64 1011.7
20260903170125 30 213 4.8 16.1 0.00 1.55 1.52 66 1011.7
20260903170025 30 232 4.8 16.1 0.00 1.55 1.52 65 1011.6
20260903170020 30 232 3.2 12.9 0.00 1.55 1.52 65 1011.5
20260903165925 30 244 4.8 16.1 0.00 1.55 1.52 65 1011.6
20260903165826 30 246 4.8 12.9 0.00 1.55 1.52 65 1011.6
20260903165726 30 246 4.8 12.9 0.00 1.55 1.52 65 1011.6
20260903165625 30 246 4.8 12.9 0.00 1.55 1.52 64 1011.6
20260903165525 30 257 4.8 12.9 0.00 1.55 1.52 64 1011.7
20260903165519 30 261 3.2 12.9 0.00 1.55 1.52 64 1011.7
20260903165424 30 240 4.8 12.9 0.00 1.55 1.52 66 1011.8
20260903165352 30 222 4.8 12.9 0.00 1.55 1.52 66 1011.7
20260903165347 30 325 4.8 12.9 0.00 1.55 1.52 66 1011.7
20260903165233 30 284 3.2 12.9 0.00 1.55 1.52 67 1011.7
20260903165034 30 276 4.8 9.7 0.00 1.55 1.52 69 1011.7
20260903165023 30 252 1.6 12.9 0.00 1.55 1.52 69 1011.8
20260903164923 30 262 1.6 9.7 0.00 1.55 1.52 68 1011.8
20260903164822 30 263 1.6 9.7 0.00 1.55 1.52 70 1011.8
20260903164722 30 319 1.6 9.7 0.00 1.55 1.52 70 1011.9
20260903164643 30 227 0.0 8.0 0.00 1.55 1.52 72 1011.9
20260903164534 30 226 4.8 8.0 0.00 1.55 1.52 70 1011.8
20260903164529 30 227 0.0 8.0 0.00 1.55 1.52 70 1011.9
20260903164341 30 355 0.0 0.0 0.00 1.55 1.52 70 1011.9
20260903164228 30 221 0.0 0.0 0.00 1.55 1.52 70 1012.0
20260903164019 30 188 0.0 0.0 0.00 1.55 1.52 71 1012.0
20260903163918 30 177 0.0 0.0 0.00 1.55 1.52 72 1012.1
20260903163825 30 246 0.0 0.0 0.00 1.55 1.52 73 1012.1
20260903163817 29 247 0.0 0.0 0.00 1.55 1.52 73 1012.1
20260903163717 29 216 0.0 0.0 0.00 1.55 1.52 73 1012.0
20260903163617 29 202 0.0 0.0 0.00 1.55 1.52 73 1012.1
20260903163535 29 220 0.0 0.0 0.00 1.55 1.52 74 1011.9
20260903163517 29 220 0.0 0.0 0.00 1.55 1.52 74 1012.0
20260903163413 29 221 0.0 0.0 0.00 1.55 1.52 73 1012.0
20260903163313 29 221 0.0 0.0 0.00 1.55 1.52 72 1011.9
20260903163212 29 186 0.0 0.0 0.00 1.55 1.52 73 1012.0
20260903163112 28 186 0.0 0.0 0.00 1.55 1.52 73 1012.0
20260903163019 28 190 0.0 0.0 0.00 1.55 1.52 74 1011.8
20260903163012 28 190 0.0 0.0 0.00 1.55 1.52 74 1012.0
20260903162911 28 290 0.0 0.0 0.00 1.55 1.52 73 1011.9
20260903162810 28 182 0.0 0.0 0.00 1.55 1.52 73 1011.9
20260903162709 28 182 0.0 0.0 0.00 1.55 1.52 73 1011.9
20260903162607 28 269 0.0 0.0 0.00 1.55 1.52 73 1011.9
20260903162549 28 236 0.0 0.0 0.00 1.55 1.52 74 1011.7
20260903162506 28 205 0.0 0.0 0.00 1.55 1.52 74 1011.9
20260903162406 28 214 0.0 0.0 0.00 1.55 1.52 73 1011.8
20260903162324 28 262 0.0 0.0 0.00 1.55 1.52 73 1011.7
20260903162307 28 250 0.0 0.0 0.00 1.55 1.52 73 1011.7
20260903162206 28 198 0.0 0.0 0.00 1.55 1.52 74 1011.9
20260903162106 28 258 0.0 0.0 0.00 1.55 1.52 74 1011.7
20260903162034 28 297 0.0 0.0 0.00 1.55 1.52 73 1011.6
20260903162006 28 297 0.0 0.0 0.00 1.55 1.52 73 1011.7
20260903161906 28 215 0.0 0.0 0.00 1.55 1.52 74 1011.9
20260903161822 28 200 0.0 0.0 0.00 1.55 1.52 74 1011.9
20260903161805 28 199 0.0 0.0 0.00 1.55 1.52 74 1011.9
20260903161705 28 199 0.0 0.0 0.00 1.55 1.52 75 1011.7
20260903161605 28 256 0.0 0.0 0.00 1.55 1.52 75 1011.7
20260903161519 28 234 0.0 0.0 0.00 1.55 1.52 76 1011.6
20260903161504 28 240 0.0 0.0 0.00 1.55 1.52 76 1011.7
20260903161403 28 215 0.0 0.0 0.00 1.55 1.52 77 1011.7
20260903161323 28 215 0.0 0.0 0.00 1.55 1.52 77 1011.7
20260903161302 28 217 0.0 0.0 0.00 1.55 1.52 77 1011.7
20260903161202 28 215 0.0 0.0 0.00 1.55 1.52 77 1011.7
20260903161101 28 205 0.0 0.0 0.00 1.55 1.52 77 1011.8
20260903161020 28 205 0.0 0.0 0.00 1.55 1.52 77 1010.8
20260903161000 28 205 0.0 0.0 0.00 1.55 1.52 77 1010.9
20260903160900 28 205 0.0 0.0 0.00 1.55 1.52 76 1010.9
20260903160822 28 205 0.0 0.0 0.00 1.55 1.52 78 1010.9
20260903160812 28 228 0.0 0.0 0.00 1.55 1.52 78 1012.1
20260903160807 28 202 0.0 0.0 0.00 1.55 1.52 78 1011.1
20260903160557 28 229 0.0 0.0 0.00 1.55 1.52 77 1012.1
20260903160524 28 229 0.0 0.0 0.00 1.55 1.52 77 1012.1
20260903160520 28 229 0.0 0.0 0.00 1.55 1.52 77 1012.1
20260903160411 27 269 0.0 0.0 0.00 1.55 1.52 76 1012.1
20260903160402 27 243 0.0 0.0 0.00 1.55 1.52 77 1012.1
20260903160155 27 261 0.0 0.0 0.00 1.55 1.52 77 1010.1
20260903160055 27 317 0.0 0.0 0.00 1.55 1.52 77 1010.1
20260903160036 27 273 0.0 0.0 0.00 1.55 1.52 78 1011.8
20260903160019 27 213 0.0 0.0 0.00 1.55 1.52 77 1011.8
20260903155955 27 287 0.0 0.0 0.00 1.55 1.52 77 1011.8
20260903155927 27 257 0.0 0.0 0.00 1.55 1.52 78 1011.8
20260903155753 27 281 0.0 0.0 0.00 1.55 1.52 78 1011.8
20260903155652 27 237 0.0 0.0 0.00 1.55 1.52 79 1012.2
20260903155552 27 219 0.0 0.0 0.00 1.55 1.52 79 1011.8
20260903155519 27 9 0.0 0.0 0.00 1.55 1.52 79 1011.8
20260903155451 27 302 0.0 0.0 0.00 1.55 1.52 79 1011.8
20260903155350 27 212 0.0 0.0 0.00 1.55 1.52 79 1011.9
20260903155319 27 212 0.0 0.0 0.00 1.55 1.52 79 1011.9
20260903155250 27 212 0.0 0.0 0.00 1.55 1.52 79 1012.4
20260903155150 27 212 0.0 0.0 0.00 1.55 1.52 79 1012.5
20260903155127 27 207 0.0 0.0 0.00 1.55 1.52 79 1012.5
20260903155047 27 212 0.0 0.0 0.00 1.55 1.52 79 1012.5
20260903155023 27 209 0.0 0.0 0.00 1.55 1.52 78 1012.6
20260903155019 27 209 0.0 0.0 0.00 1.55 1.52 79 1012.6
20260903155014 27 209 0.0 0.0 0.00 1.55 1.52 79 1012.5
20260903154755 27 207 0.0 0.0 0.00 1.55 1.52 78 1012.3
20260903154546 27 143 0.0 0.0 0.00 1.55 1.52 77 1012.4
20260903154519 27 243 0.0 0.0 0.00 1.55 1.52 77 1012.6
20260903154446 27 264 0.0 0.0 0.00 1.55 1.52 77 1012.6
20260903154344 27 267 0.0 0.0 0.00 1.55 1.52 78 1012.5
20260903154316 27 236 0.0 0.0 0.00 1.55 1.52 78 1012.5
20260903154244 27 190 0.0 0.0 0.00 1.55 1.52 78 1012.3
20260903154143 27 190 0.0 0.0 0.00 1.55 1.52 78 1012.2
20260903154046 27 222 0.0 0.0 0.00 1.55 1.52 78 1012.3
20260903154039 27 262 0.0 0.0 0.00 1.55 1.52 78 1011.7
20260903154019 27 230 0.0 0.0 0.00 1.55 1.52 78 1012.4
20260903153943 27 306 0.0 0.0 0.00 1.55 1.52 78 1012.4
20260903153924 27 263 0.0 0.0 0.00 1.55 1.52 78 1011.7
20260903153756 27 255 0.0 0.0 0.00 1.55 1.52 78 1012.6
20260903153750 27 265 0.0 0.0 0.00 1.55 1.52 79 1012.3
20260903153605 27 209 0.0 0.0 0.00 1.55 1.52 79 1012.2
20260903153541 27 256 0.0 0.0 0.00 1.55 1.52 78 1012.3
20260903153534 27 241 0.0 0.0 0.00 1.55 1.52 79 1011.6
20260903153508 27 259 0.0 0.0 0.00 1.55 1.52 79 1012.2
20260903153503 27 252 0.0 0.0 0.00 1.55 1.52 79 1011.6
20260903153454 27 209 0.0 0.0 0.00 1.55 1.52 79 1012.2
20260903153154 27 221 0.0 0.0 0.00 1.55 1.52 78 1012.5
20260903153149 27 221 0.0 0.0 0.00 1.55 1.52 78 1012.5
20260903153020 27 285 0.0 0.0 0.00 1.55 1.52 78 1012.5
20260903152939 27 285 0.0 0.0 0.00 1.55 1.52 78 1012.5
20260903152837 27 212 0.0 0.0 0.00 1.55 1.52 78 1012.7
20260903152812 27 213 0.0 0.0 0.00 1.55 1.52 78 1012.7
20260903152737 27 229 0.0 0.0 0.00 1.55 1.52 78 1012.7
20260903152637 27 203 0.0 0.0 0.00 1.55 1.52 79 1012.8
20260903152536 27 163 0.0 0.0 0.00 1.55 1.52 78 1012.7
20260903152519 27 163 0.0 0.0 0.00 1.55 1.52 77 1012.8
20260903152435 27 162 0.0 0.0 0.00 1.55 1.52 77 1012.8
20260903152335 27 209 0.0 0.0 0.00 1.55 1.52 76 1012.8
20260903152312 27 284 0.0 0.0 0.00 1.55 1.52 77 1012.8
20260903152234 27 336 0.0 0.0 0.00 1.55 1.52 77 1012.9
20260903152136 27 261 0.0 0.0 0.00 1.55 1.52 77 1012.8
20260903152129 27 259 0.0 0.0 0.00 1.55 1.52 77 1012.9
20260903152125 27 259 0.0 0.0 0.00 1.55 1.52 77 1012.9
20260903152118 27 252 0.0 0.0 0.00 1.55 1.52 77 1012.9
20260903152019 27 283 0.0 0.0 0.00 1.55 1.52 77 1012.9
20260903152005 27 283 0.0 0.0 0.00 1.55 1.52 76 1012.9
20260903151956 27 287 0.0 0.0 0.00 1.55 1.52 77 1012.9
20260903151531 27 264 0.0 0.0 0.00 1.55 1.52 77 1012.9
20260903151519 27 264 0.0 0.0 0.00 1.55 1.52 77 1012.5
20260903151431 27 261 0.0 0.0 0.00 1.55 1.52 77 1012.5
20260903151350 27 259 0.0 0.0 0.00 1.55 1.52 78 1011.9
20260903151345 27 306 0.0 0.0 0.00 1.55 1.52 78 1012.7
20260903151337 27 318 0.0 0.0 0.00 1.55 1.52 78 1012.7
20260903151144 27 196 0.0 0.0 0.00 1.55 1.52 80 1009.0
20260903151138 27 284 0.0 0.0 0.00 1.55 1.52 78 1011.9
20260903151034 27 196 0.0 0.0 0.00 1.55 1.52 80 1008.9
20260903150928 27 196 0.0 0.0 0.00 1.55 1.52 80 1009.0
20260903150827 27 196 0.0 0.0 0.00 1.55 1.52 81 1009.0
20260903150809 27 194 0.0 0.0 0.00 1.55 1.52 81 1009.0
20260903150727 27 220 0.0 0.0 0.00 1.55 1.52 81 1009.0
20260903150627 27 266 0.0 0.0 0.00 1.55 1.52 82 1009.0
20260903150526 27 235 0.0 0.0 0.00 1.55 1.52 81 1008.9
20260903150519 27 236 0.0 0.0 0.00 1.55 1.52 81 1008.9
20260903150426 27 235 0.0 0.0 0.00 1.55 1.52 81 1008.9
20260903150324 27 235 0.0 0.0 0.00 1.55 1.52 81 1009.1
20260903150306 27 245 0.0 0.0 0.00 1.55 1.52 81 1009.1
20260903150224 27 247 0.0 0.0 0.00 1.55 1.52 81 1008.6
20260903150124 27 248 0.0 0.0 0.00 1.55 1.52 81 1008.7
20260903150037 27 269 0.0 0.0 0.00 1.55 1.52 81 1010.2
20260903150032 27 257 0.0 0.0 0.00 1.55 1.52 81 1010.2
20260903150019 27 257 0.0 0.0 0.00 1.55 1.52 82 1010.2
20260903145806 27 271 0.0 0.0 0.00 1.55 1.52 81 1013.0
20260903145721 27 271 0.0 0.0 0.00 1.55 1.52 81 1013.0
20260903145635 27 270 0.0 0.0 0.00 1.55 1.52 80 1013.0
20260903145629 27 271 0.0 0.0 0.00 1.55 1.52 80 1013.0
20260903145520 27 270 0.0 0.0 0.00 1.55 1.52 80 1011.3
20260903145420 27 290 0.0 0.0 0.00 1.55 1.52 80 1011.3
20260903145306 27 263 0.0 0.0 0.00 1.55 1.52 80 1011.3
20260903145218 27 268 0.0 0.0 0.00 1.55 1.52 80 1011.3
20260903145131 27 268 0.0 0.0 0.00 1.55 1.52 81 1011.9
20260903145126 27 218 0.0 0.0 0.00 1.55 1.52 80 1011.3
20260903145019 27 269 0.0 0.0 0.00 1.55 1.52 80 1011.4
20260903144917 27 270 0.0 0.0 0.00 1.55 1.52 80 1011.4
20260903144804 27 254 0.0 0.0 0.00 1.55 1.52 81 1011.1
20260903144730 27 254 0.0 0.0 0.00 1.55 1.52 81 1011.2
20260903144724 27 250 0.0 0.0 0.00 1.55 1.52 81 1011.2
20260903144519 27 254 0.0 0.0 0.00 1.55 1.52 81 1010.6
20260903144515 27 254 0.0 0.0 0.00 1.55 1.52 81 1011.2
20260903144414 27 281 0.0 0.0 0.00 1.55 1.52 82 1010.6
20260903144314 26 305 0.0 0.0 0.00 1.55 1.52 84 1010.9
20260903144304 26 233 0.0 0.0 0.00 1.55 1.52 84 1010.9
20260903144214 26 232 0.0 0.0 0.00 1.55 1.52 83 1010.9
20260903144127 26 230 0.0 0.0 0.00 1.55 1.52 85 1011.6
20260903144122 26 232 0.0 0.0 0.00 1.55 1.52 83 1011.3
20260903144019 26 246 0.0 0.0 0.00 1.55 1.52 85 1012.2
20260903143912 26 242 0.0 0.0 0.00 1.55 1.52 85 1012.2
20260903143812 26 242 0.0 0.0 0.00 1.55 1.52 85 1012.1
20260903143803 26 242 0.0 0.0 0.00 1.55 1.52 84 1009.5
20260903143725 26 241 0.0 0.0 0.00 1.55 1.52 84 1009.5
20260903143720 26 241 0.0 0.0 0.00 1.55 1.52 84 1009.5
20260903143534 26 194 0.0 0.0 0.00 1.55 1.52 84 1011.8
20260903143510 26 194 0.0 0.0 0.00 1.55 1.52 84 1009.5
20260903143410 26 194 0.0 0.0 0.00 1.55 1.52 83 1011.8
20260903143310 26 201 0.0 0.0 0.00 1.55 1.52 84 1011.8
20260903143303 26 233 0.0 0.0 0.00 1.55 1.52 84 1011.8
20260903143209 26 331 0.0 0.0 0.00 1.55 1.52 84 1011.8
20260903143108 26 255 0.0 0.0 0.00 1.55 1.52 85 1011.3
20260903143019 26 199 0.0 0.0 0.00 1.55 1.52 85 1009.9
20260903143007 26 202 0.0 0.0 0.00 1.55 1.52 85 1009.9
20260903142907 26 267 0.0 0.0 0.00 1.55 1.52 85 1009.9
20260903142810 26 275 0.0 0.0 0.00 1.55 1.52 86 1010.6
20260903142803 26 288 0.0 0.0 0.00 1.55 1.52 86 1010.6
20260903142706 26 268 0.0 0.0 0.00 1.55 1.52 86 1008.6
20260903142607 26 246 0.0 0.0 0.00 1.55 1.52 88 1008.6
20260903142519 26 261 0.0 0.0 0.00 1.55 1.52 88 1008.6
20260903142506 26 261 0.0 0.0 0.00 1.55 1.52 88 1008.6
20260903142406 26 261 0.0 0.0 0.00 1.55 1.52 88 1008.6
20260903142306 25 261 0.0 0.0 0.00 1.55 1.52 88 1008.6
20260903142207 25 262 0.0 0.0 0.00 1.55 1.52 88 1008.5
20260903142200 25 224 0.0 0.0 0.00 1.55 1.52 89 1012.2
20260903142156 25 191 0.0 0.0 0.00 1.55 1.52 89 1011.8
20260903142149 25 262 0.0 0.0 0.00 1.55 1.52 87 1012.2
20260903142020 25 236 0.0 0.0 0.00 1.55 1.52 89 1012.2
20260903141927 25 259 0.0 0.0 0.00 1.55 1.52 89 1012.2
20260903141813 25 191 0.0 0.0 0.00 1.55 1.52 89 1011.8
20260903141602 25 276 0.0 0.0 0.00 1.55 1.52 91 1009.4
20260903141519 25 205 0.0 0.0 0.00 1.55 1.52 92 1009.4
20260903141502 25 205 0.0 0.0 0.00 1.55 1.52 92 1009.4
20260903141402 25 206 0.0 0.0 0.00 1.55 1.52 92 1009.4
20260903141301 25 206 0.0 0.0 0.00 1.55 1.52 93 1010.0
20260903141200 25 207 0.0 0.0 0.00 1.55 1.52 93 1010.0
20260903141100 25 252 0.0 0.0 0.00 1.55 1.52 93 1009.0
20260903141042 25 252 0.0 0.0 0.00 1.55 1.52 93 1008.7
20260903141019 25 250 0.0 0.0 0.00 1.55 1.52 93 1009.0
20260903140959 25 250 0.0 0.0 0.00 1.55 1.52 93 1009.0
20260903140942 25 252 0.0 0.0 0.00 1.55 1.52 94 1008.9
20260903140938 24 277 0.0 0.0 0.00 1.55 1.52 94 1008.8
20260903140931 25 251 0.0 0.0 0.00 1.55 1.52 93 1008.7
20260903140817 25 252 0.0 0.0 0.00 1.55 1.52 93 1008.7
20260903140520 24 250 0.0 0.0 0.00 1.55 1.52 94 1009.1
20260903140458 24 250 0.0 0.0 0.00 1.55 1.52 94 1009.1
20260903140358 24 258 0.0 0.0 0.00 1.55 1.52 95 1009.4
20260903140257 24 242 0.0 0.0 0.00 1.55 1.52 95 1010.5
20260903140157 24 241 0.0 0.0 0.00 1.55 1.52 95 1010.5
20260903140139 24 242 0.0 0.0 0.00 1.55 1.52 95 1010.3
20260903140133 24 241 0.0 0.0 0.00 1.55 1.52 95 1010.5
20260903140034 24 242 0.0 0.0 0.00 1.55 1.52 95 1010.3
20260903135910 24 238 0.0 0.0 0.00 1.55 1.52 95 1010.6
20260903135902 24 238 0.0 0.0 0.00 1.55 1.52 95 1010.5
20260903135655 24 242 0.0 0.0 0.00 1.55 1.52 95 1011.0
20260903135554 24 242 0.0 0.0 0.00 1.55 1.52 95 1010.6
20260903135523 23 257 0.0 0.0 0.00 1.55 1.52 96 1010.5
20260903135520 24 242 0.0 0.0 0.00 1.55 1.52 95 1010.6
20260903135453 24 257 0.0 0.0 0.00 1.55 1.52 95 1010.5
20260903135407 24 257 0.0 0.0 0.00 1.55 1.52 95 1010.5
20260903135253 23 257 0.0 0.0 0.00 1.55 1.52 96 1010.5
20260903135152 23 257 0.0 0.0 0.00 1.55 1.52 96 1010.5
20260903135106 23 237 0.0 0.0 0.00 1.55 1.52 96 1010.5
20260903135100 23 256 0.0 0.0 0.00 1.55 1.52 96 1010.5
20260903135020 23 237 0.0 0.0 0.00 1.55 1.52 96 1010.5
20260903134850 23 234 0.0 0.0 0.00 1.55 1.52 96 1010.5
20260903134809 23 281 0.0 0.0 0.00 1.55 1.52 97 1011.0
20260903134804 23 255 0.0 0.0 0.00 1.55 1.52 96 1011.0
20260903134758 23 278 0.0 0.0 0.00 1.55 1.52 96 1011.0
20260903134546 23 281 0.0 0.0 0.00 1.55 1.52 97 1011.0
20260903134520 23 281 0.0 0.0 0.00 1.55 1.52 97 1011.4
20260903134459 23 281 0.0 0.0 0.00 1.55 1.52 97 1011.5
20260903134454 23 281 0.0 0.0 0.00 1.55 1.52 97 1011.4
20260903134244 23 281 0.0 0.0 0.00 1.55 1.52 97 1011.9
20260903134144 23 281 0.0 0.0 0.00 1.55 1.52 97 1012.0
20260903134042 23 281 0.0 0.0 0.00 1.55 1.52 97 1012.0
20260903134019 23 281 0.0 0.0 0.00 1.55 1.52 98 1012.1
20260903134014 23 281 0.0 0.0 0.00 1.55 1.52 98 1012.0
20260903133941 23 281 0.0 0.0 0.00 1.55 1.52 98 1012.1
20260903133902 23 281 0.0 0.0 0.00 1.55 1.52 98 1012.0
20260903133741 23 281 0.0 0.0 0.00 1.55 1.52 98 1012.0
20260903133654 23 281 0.0 0.0 0.00 1.55 1.52 98 1009.6
20260903133649 23 281 0.0 0.0 0.00 1.55 1.52 98 1011.9
20260903133535 23 281 0.0 0.0 0.00 1.55 1.52 98 1009.6
20260903133439 23 281 0.0 0.0 0.00 1.55 1.52 98 1009.6
20260903133339 23 281 0.0 0.0 0.00 1.55 1.52 98 1009.6
20260903133252 23 281 0.0 0.0 0.00 1.55 1.52 98 1009.6
20260903133238 23 281 0.0 0.0 0.00 1.55 1.52 98 1009.6
20260903133138 23 281 0.0 0.0 0.00 1.55 1.52 98 1011.8
20260903133038 23 281 0.0 0.0 0.00 1.55 1.52 98 1011.8
20260903133019 23 290 0.0 0.0 0.00 1.55 1.52 98 1010.6
20260903132937 23 290 0.0 0.0 0.00 1.55 1.52 98 1010.6
20260903132836 23 290 0.0 0.0 0.00 1.55 1.52 98 1010.6
20260903132747 23 290 0.0 0.0 0.00 1.55 1.52 98 1010.6
20260903132738 23 290 0.0 0.0 0.00 1.55 1.52 98 1010.6
20260903132627 23 292 0.0 0.0 0.00 1.55 1.52 98 1011.8
20260903132623 23 292 0.0 0.0 0.00 1.55 1.52 98 1009.5
20260903132619 22 292 0.0 0.0 0.00 1.55 1.52 98 1009.5
20260903132612 23 292 0.0 0.0 0.00 1.55 1.52 98 1009.2
20260903132603 23 292 0.0 0.0 0.00 1.55 1.52 98 1009.2
20260903132519 23 292 0.0 0.0 0.00 1.55 1.52 98 1009.2
20260903132339 23 292 0.0 0.0 0.00 1.55 1.52 98 1011.8
20260903132020 22 292 0.0 0.0 0.00 1.55 1.52 98 1009.7
20260903131932 22 292 0.0 0.0 0.00 1.55 1.52 98 1009.7
20260903131856 22 292 0.0 0.0 0.00 1.55 1.52 98 1011.0
20260903131731 22 292 0.0 0.0 0.00 1.55 1.52 98 1011.0
20260903131630 22 292 0.0 0.0 0.00 1.55 1.52 98 1009.1
20260903131530 22 291 0.0 0.0 0.00 1.55 1.52 98 1009.1
20260903131520 22 291 0.0 0.0 0.00 1.55 1.52 98 1009.1
20260903131430 22 291 0.0 0.0 0.00 1.55 1.52 98 1009.1
20260903131329 22 294 0.0 0.0 0.00 1.55 1.52 98 1009.1
20260903131248 22 295 0.0 0.0 0.00 1.55 1.52 98 1009.2
20260903131242 22 200 0.0 0.0 0.00 1.55 1.52 98 1009.2
20260903131237 22 294 0.0 0.0 0.00 1.55 1.52 98 1009.2
20260903131028 22 200 0.0 0.0 0.00 1.55 1.52 98 1009.2
20260903131020 22 200 0.0 0.0 0.00 1.55 1.52 98 1009.2
20260903131017 22 200 0.0 0.0 0.00 1.55 1.52 98 1008.9
20260903130926 22 200 0.0 0.0 0.00 1.55 1.52 98 1009.2
20260903130857 22 200 0.0 0.0 0.00 1.55 1.52 98 1009.0
20260903130740 22 200 0.0 0.0 0.00 1.55 1.52 98 1009.4
20260903130735 22 200 0.0 0.0 0.00 1.55 1.52 98 1008.9
20260903130534 22 235 0.0 0.0 0.00 1.55 1.52 98 1009.2
20260903130525 22 235 0.0 0.0 0.00 1.55 1.52 98 1009.3
20260903130425 22 235 0.0 0.0 0.00 1.55 1.52 98 1009.2
20260903130323 22 235 0.0 0.0 0.00 1.55 1.52 98 1009.3
20260903130222 22 235 0.0 0.0 0.00 1.55 1.52 98 1009.8
20260903130120 22 235 0.0 0.0 0.00 1.55 1.52 98 1010.4
20260903130020 22 234 0.0 0.0 0.00 1.55 1.52 98 1010.4
20260903125920 22 229 0.0 0.0 0.00 1.55 1.52 98 1010.1
20260903125837 22 229 0.0 0.0 0.00 1.55 1.52 98 1010.4
20260903125832 22 229 0.0 0.0 0.00 1.55 1.52 98 1009.8
20260903125824 22 229 0.0 0.0 0.00 1.55 1.52 98 1010.4
20260903125624 22 229 0.0 0.0 0.00 1.55 1.52 98 1010.5
20260903125615 21 229 0.0 0.0 0.00 1.55 1.52 98 1011.2
20260903125549 22 229 0.0 0.0 0.00 1.55 1.52 98 1011.2
20260903125416 21 229 0.0 0.0 0.00 1.55 1.52 98 1011.2
20260903125353 21 229 0.0 0.0 0.00 1.55 1.52 98 1011.9
20260903125216 21 229 0.0 0.0 0.00 1.55 1.52 98 1012.3
20260903125113 21 229 0.0 0.0 0.00 1.55 1.52 98 1012.4
20260903125019 21 229 0.0 0.0 0.00 1.55 1.52 98 1012.6
20260903125013 21 229 0.0 0.0 0.00 1.55 1.52 98 1012.6
20260903124912 21 229 0.0 0.0 0.00 1.55 1.52 98 1012.6
20260903124812 21 229 0.0 0.0 0.00 1.55 1.52 98 1012.6
20260903124743 21 229 0.0 0.0 0.00 1.55 1.52 98 1012.6
20260903124711 21 229 0.0 0.0 0.00 1.55 1.52 98 1012.6
20260903124611 21 229 0.0 0.0 0.00 1.55 1.52 98 1012.6
20260903124521 21 229 0.0 0.0 0.00 1.55 1.52 97 1012.6
20260903124511 21 229 0.0 0.0 0.00 1.55 1.52 97 1012.6
20260903124410 21 229 0.0 0.0 0.00 1.55 1.52 97 1012.6
20260903124309 21 229 0.0 0.0 0.00 1.55 1.52 97 1012.6
20260903124241 21 229 0.0 0.0 0.00 1.55 1.52 97 1012.5
20260903124208 21 229 0.0 0.0 0.00 1.55 1.52 97 1012.5
20260903124108 21 229 0.0 0.0 0.00 1.55 1.52 97 1012.5
20260903124019 21 229 0.0 0.0 0.00 1.55 1.52 97 1012.5
20260903124009 21 229 0.0 0.0 0.00 1.55 1.52 97 1012.5
20260903123952 21 229 0.0 0.0 0.00 1.55 1.52 98 1012.4
20260903123948 21 229 0.0 0.0 0.00 1.55 1.52 98 1012.5
20260903123943 21 229 0.0 3.2 0.00 1.55 1.52 98 1012.4
20260903123938 21 229 0.0 0.0 0.00 1.55 1.52 98 1012.5
20260903123820 21 229 0.0 0.0 0.00 1.55 1.52 98 1012.5
20260903123519 21 229 0.0 4.8 0.00 1.55 1.52 97 1012.5
20260903123504 21 229 0.0 4.8 0.00 1.55 1.52 97 1012.4
20260903123404 21 229 0.0 4.8 0.00 1.55 1.52 97 1012.4
20260903123336 21 229 0.0 4.8 0.00 1.55 1.52 97 1012.5
20260903123332 21 229 0.0 4.8 0.00 1.55 1.52 97 1012.5
20260903123327 21 229 0.0 4.8 0.00 1.55 1.52 97 1012.4
20260903123320 21 229 0.0 4.8 0.00 1.55 1.52 97 1012.4
20260903123019 21 229 0.0 4.8 0.00 1.55 1.52 97 1012.6
20260903123001 21 229 0.0 4.8 0.00 1.55 1.52 97 1012.5
20260903122901 21 229 0.0 4.8 0.00 1.55 1.52 97 1012.5
20260903122801 21 229 0.0 4.8 0.00 1.55 1.52 97 1012.6
20260903122741 21 229 0.0 4.8 0.00 1.55 1.52 97 1012.6
20260903122659 21 229 0.0 4.8 0.00 1.55 1.52 97 1012.6
20260903122559 21 246 0.0 4.8 0.00 1.55 1.52 97 1012.7
20260903122519 21 250 0.0 1.6 0.00 1.55 1.52 97 1012.8
20260903122459 21 250 0.0 1.6 0.00 1.55 1.52 97 1012.7
20260903122358 21 250 0.0 1.6 0.00 1.55 1.52 98 1012.7
20260903122257 21 250 0.0 1.6 0.00 1.55 1.52 98 1012.7
20260903122240 21 250 0.0 1.6 0.00 1.55 1.52 98 1012.7
20260903122224 21 250 0.0 3.2 0.00 1.55 1.52 98 1012.8
20260903122220 21 250 0.0 3.2 0.00 1.55 1.52 98 1012.8
20260903122215 21 250 0.0 3.2 0.00 1.55 1.52 98 1012.7
20260903122021 21 250 0.0 1.6 0.00 1.55 1.52 98 1012.9
20260903121909 21 250 0.0 3.2 0.00 1.55 1.52 98 1012.8
20260903121904 21 250 0.0 3.2 0.00 1.55 1.52 98 1012.8
20260903121742 21 250 0.0 3.2 0.00 1.55 1.52 98 1012.8
20260903121655 21 250 0.0 3.2 0.00 1.55 1.52 98 1012.8
20260903121554 21 250 0.0 3.2 0.00 1.55 1.52 97 1012.7
20260903121519 21 250 0.0 3.2 0.00 1.55 1.52 97 1012.8
20260903121454 21 250 0.0 3.2 0.00 1.55 1.52 97 1012.7
20260903121353 21 250 0.0 3.2 0.00 1.55 1.52 97 1012.7
20260903121312 20 242 0.0 3.2 0.00 1.55 1.52 97 1012.7
20260903121300 21 250 0.0 3.2 0.00 1.55 1.52 97 1012.7
20260903121052 20 242 0.0 3.2 0.00 1.55 1.52 97 1012.7
20260903121020 21 242 0.0 3.2 0.00 1.55 1.52 97 1012.8
20260903120951 20 242 0.0 3.2 0.00 1.55 1.52 97 1012.7
20260903120850 20 242 0.0 3.2 0.00 1.55 1.52 97 1012.7
20260903120738 20 242 0.0 3.2 0.00 1.55 1.52 97 1012.6
20260903120649 20 242 0.0 3.2 0.00 1.55 1.52 97 1012.5
20260903120549 20 254 0.0 8.0 0.00 1.55 1.52 97 1012.5
20260903120519 20 252 0.0 8.0 0.00 1.55 1.52 97 1012.6
20260903120446 20 252 0.0 8.0 0.00 1.55 1.52 97 1012.5
20260903120346 20 252 0.0 8.0 0.00 1.55 1.52 97 1012.5
20260903120242 20 167 0.0 8.0 0.00 1.55 1.52 97 1012.3
20260903120238 20 252 0.0 8.0 0.00 1.55 1.52 97 1012.5
20260903120232 20 167 0.0 8.0 0.00 1.55 1.52 97 1012.3
20260903120226 20 167 0.0 8.0 0.00 1.55 1.52 97 1012.4
20260903120019 20 167 0.0 8.0 0.00 1.55 1.52 97 1012.4
20260903115854 20 167 0.0 8.0 0.00 1.55 1.52 97 1012.2
20260903115738 20 167 1.6 8.0 0.00 1.55 1.52 97 1012.1
20260903115642 20 167 1.6 11.3 0.00 1.55 1.52 97 1012.0
20260903115542 20 184 1.6 11.3 0.00 1.55 1.52 97 1012.0
20260903115534 20 302 0.0 11.3 0.00 1.55 1.52 97 1012.1
20260903115442 20 302 1.6 11.3 0.00 1.55 1.52 97 1012.0
20260903115340 20 306 1.6 11.3 0.00 1.55 1.52 97 1012.0
20260903115236 20 306 1.6 11.3 0.00 1.55 1.52 97 1012.0
20260903115154 20 306 1.6 11.3 0.00 1.55 1.52 97 1012.3
20260903115149 20 306 1.6 11.3 0.00 1.55 1.52 97 1012.1
20260903115020 20 306 0.0 11.3 0.00 1.55 1.52 97 1012.7
20260903114938 20 306 1.6 11.3 0.00 1.55 1.52 97 1012.6
20260903114838 20 309 1.6 11.3 0.00 1.55 1.52 97 1012.6
20260903114739 20 268 1.6 11.3 0.00 1.55 1.52 97 1012.4
20260903114651 20 271 1.6 3.2 0.00 1.55 1.52 97 1011.8
20260903114646 20 276 1.6 3.2 0.00 1.55 1.52 97 1012.2
20260903114519 20 222 0.0 3.2 0.00 1.55 1.52 97 1011.8
20260903114436 20 196 1.6 3.2 0.00 1.55 1.52 97 1011.7
20260903114336 20 213 1.6 3.2 0.00 1.55 1.52 97 1011.6
20260903114237 20 155 0.0 3.2 0.00 1.55 1.52 97 1011.6
20260903114135 20 146 0.0 3.2 0.00 1.55 1.52 97 1011.6
20260903114032 20 154 0.0 3.2 0.00 1.55 1.52 97 1011.8
20260903114020 20 159 0.0 3.2 0.00 1.55 1.52 97 1012.0
20260903113933 20 170 0.0 3.2 0.00 1.55 1.52 97 1011.9
20260903113926 20 190 0.0 1.6 0.00 1.55 1.52 97 1012.3
20260903113922 20 218 0.0 1.6 0.00 1.55 1.52 97 1012.5
20260903113915 20 191 0.0 3.2 0.00 1.55 1.52 97 1012.1
20260903113802 20 150 0.0 1.6 0.00 1.55 1.52 97 1012.2
20260903113756 20 148 0.0 1.6 0.00 1.55 1.52 97 1012.2
20260903113638 20 208 0.0 1.6 0.00 1.55 1.52 97 1012.4
20260903113520 20 218 0.0 1.6 0.00 1.55 1.52 97 1012.6
20260903113416 20 218 0.0 1.6 0.00 1.55 1.52 97 1012.5
20260903113301 20 218 0.0 1.6 0.00 1.55 1.52 97 1012.6
20260903113147 20 218 0.0 1.6 0.00 1.55 1.52 97 1012.7
20260903113020 20 218 0.0 1.6 0.00 1.55 1.52 97 1012.9
20260903112829 20 218 0.0 1.6 0.00 1.55 1.52 97 1012.8
20260903112748 20 198 0.0 1.6 0.00 1.55 1.52 97 1012.7
20260903112737 20 198 0.0 1.6 0.00 1.55 1.52 97 1012.8
20260903112613 20 198 0.0 1.6 0.00 1.55 1.52 97 1012.9
20260903112605 20 198 0.0 1.6 0.00 1.55 1.52 97 1013.0
20260903112559 20 198 0.0 1.6 0.00 1.55 1.52 97 1012.8
20260903112549 20 198 0.0 1.6 0.00 1.55 1.52 97 1012.9
20260903112520 20 198 0.0 1.6 0.00 1.55 1.52 97 1013.0
20260903112125 20 215 0.0 1.6 0.00 1.55 1.52 97 1013.1
20260903112025 20 123 0.0 1.6 0.00 1.55 1.52 97 1013.1
20260903112020 20 123 0.0 1.6 0.00 1.55 1.52 97 1013.1
20260903111925 20 123 0.0 1.6 0.00 1.55 1.52 97 1013.0
20260903111824 20 123 0.0 1.6 0.00 1.55 1.52 97 1013.0
20260903111724 20 123 0.0 1.6 0.00 1.55 1.52 97 1013.0
20260903111623 20 123 0.0 3.2 0.00 1.55 1.52 97 1013.1
20260903111534 20 122 0.0 3.2 0.00 1.55 1.52 97 1013.1
20260903111523 20 122 0.0 3.2 0.00 1.55 1.52 97 1013.0
20260903111424 20 122 0.0 3.2 0.00 1.55 1.52 97 1013.0
20260903111323 20 263 0.0 3.2 0.00 1.55 1.52 97 1013.0
20260903111223 20 200 0.0 3.2 0.00 1.55 1.52 97 1013.1
20260903111122 20 200 0.0 3.2 0.00 1.55 1.52 97 1013.1
20260903111022 20 200 0.0 3.2 0.00 1.55 1.52 97 1013.1
20260903111020 20 200 0.0 3.2 0.00 1.55 1.52 97 1013.3
20260903110936 20 202 0.0 3.2 0.00 1.55 1.52 97 1013.2
20260903110930 20 200 0.0 3.2 0.00 1.55 1.52 97 1013.2
20260903110721 20 203 0.0 3.2 0.00 1.55 1.52 97 1013.2
20260903110620 20 273 0.0 3.2 0.00 1.55 1.52 97 1013.2
20260903110545 20 134 0.0 3.2 0.00 1.55 1.52 97 1013.4
20260903110520 20 273 0.0 3.2 0.00 1.55 1.52 97 1013.4
20260903110449 20 134 0.0 3.2 0.00 1.55 1.52 97 1013.4
20260903110443 20 142 0.0 3.2 0.00 1.55 1.52 97 1013.3
20260903110434 20 142 0.0 3.2 0.00 1.55 1.52 97 1013.4
20260903110117 20 134 0.0 3.2 0.00 1.55 1.52 97 1013.4
20260903110020 20 199 0.0 1.6 0.00 1.55 1.52 97 1013.6
20260903110016 20 147 0.0 3.2 0.00 1.55 1.52 97 1013.4
20260903105945 20 287 0.0 1.6 0.00 1.55 1.52 97 1013.6
20260903105915 20 287 0.0 1.6 0.00 1.55 1.52 97 1013.5
20260903105831 20 287 0.0 1.6 0.00 1.55 1.52 97 1013.5
20260903105715 20 287 0.0 1.6 0.00 1.55 1.52 97 1013.6
20260903105614 20 287 0.0 1.6 0.00 1.55 1.52 97 1013.7
20260903105528 20 287 0.0 1.6 0.00 1.55 1.52 97 1013.9
20260903105523 20 287 0.0 1.6 0.00 1.55 1.52 97 1013.8
20260903105520 20 287 0.0 1.6 0.00 1.55 1.52 97 1014.0
20260903105312 20 287 0.0 1.6 0.00 1.55 1.52 97 1014.0
20260903105210 20 287 0.0 1.6 0.00 1.55 1.52 97 1014.0
20260903105109 20 287 0.0 1.6 0.00 1.55 1.52 97 1014.1
20260903105020 20 287 0.0 1.6 0.00 1.55 1.52 97 1014.1
20260903105009 20 287 0.0 1.6 0.00 1.55 1.52 97 1014.1
20260903104909 20 287 0.0 1.6 0.00 1.55 1.52 97 1014.0
20260903104821 20 287 0.0 1.6 0.00 1.55 1.52 97 1014.0
20260903104813 20 287 0.0 1.6 0.00 1.55 1.52 97 1014.0
20260903104605 20 287 0.0 1.6 0.00 1.55 1.52 97 1014.1
20260903104535 20 287 0.0 1.6 0.00 1.55 1.52 97 1014.2
20260903104506 20 287 0.0 1.6 0.00 1.55 1.52 97 1014.1
20260903104406 20 287 0.0 1.6 0.00 1.55 1.52 97 1014.1
20260903104320 20 287 0.0 1.6 0.00 1.55 1.52 97 1014.1
20260903104312 20 287 0.0 1.6 0.00 1.55 1.52 97 1014.1
20260903104104 20 287 0.0 1.6 0.00 1.55 1.52 97 1014.1
20260903104045 20 290 0.0 4.8 0.03 1.55 1.52 97 1014.1
20260903104039 20 287 0.0 3.2 0.00 1.55 1.52 97 1014.1
20260903104020 20 287 0.0 3.2 0.00 1.55 1.52 97 1014.2
20260903103925 20 287 0.0 4.8 0.00 1.55 1.52 97 1014.1
20260903103808 20 290 0.0 4.8 0.03 1.55 1.52 97 1014.1
20260903103602 20 290 0.0 4.8 0.03 1.55 1.52 97 1014.0
20260903103520 21 290 0.0 4.8 0.03 1.55 1.52 97 1014.1
20260903103502 20 290 0.0 4.8 0.03 1.55 1.52 97 1014.0
20260903103416 20 290 0.0 4.8 0.03 1.55 1.52 97 1014.0
20260903103411 20 290 0.0 4.8 0.03 1.55 1.52 97 1014.1
20260903103216 20 284 0.0 4.8 0.03 1.55 1.52 97 1014.0
20260903103159 20 266 0.0 4.8 0.03 1.55 1.52 97 1014.1
20260903103059 20 260 0.0 4.8 0.03 1.55 1.52 97 1014.0
20260903103041 20 248 0.0 4.8 0.03 1.55 1.52 97 1013.9
20260903103037 20 248 0.0 4.8 0.03 1.55 1.52 97 1013.9
20260903103035 21 261 0.0 4.8 0.03 1.55 1.52 97 1014.1
20260903103031 20 261 0.0 4.8 0.03 1.55 1.52 97 1014.0
20260903103022 20 248 0.0 3.2 0.03 1.55 1.52 97 1013.9
20260903102556 20 248 0.0 4.8 0.03 1.55 1.52 97 1013.8
20260903102520 20 248 0.0 4.8 0.03 1.55 1.52 97 1013.9
20260903102457 20 248 0.0 4.8 0.03 1.55 1.52 97 1013.8
20260903102356 20 293 0.0 4.8 0.03 1.55 1.52 97 1013.8
20260903102255 20 293 0.0 4.8 0.05 1.55 1.52 97 1013.8
20260903102213 20 293 0.0 4.8 0.05 1.55 1.52 97 1013.8
20260903102155 20 285 0.0 4.8 0.05 1.55 1.52 97 1013.7
20260903102054 20 260 0.0 4.8 0.05 1.55 1.52 97 1013.5
20260903102020 20 282 1.6 4.8 0.05 1.55 1.52 97 1013.5
20260903101954 20 280 0.0 4.8 0.05 1.55 1.52 97 1013.4
20260903101854 20 261 0.0 4.8 0.05 1.55 1.52 97 1013.3
20260903101753 20 211 0.0 3.2 0.05 1.55 1.52 97 1013.2
20260903101726 20 207 0.0 3.2 0.08 1.55 1.52 97 1013.3
20260903101721 20 173 0.0 3.2 0.08 1.55 1.52 97 1013.3
20260903101717 20 211 0.0 3.2 0.08 1.55 1.52 97 1013.2
20260903101710 20 161 0.0 3.2 0.08 1.55 1.52 97 1013.3
20260903101534 20 173 0.0 1.6 0.08 1.55 1.52 97 1013.4
20260903101351 20 154 0.0 3.2 0.08 1.55 1.52 97 1013.3
20260903101310 20 201 0.0 3.2 0.10 1.55 1.52 97 1013.3
20260903101305 20 153 0.0 3.2 0.08 1.55 1.52 97 1013.3
20260903101257 20 201 0.0 3.2 0.08 1.55 1.52 97 1013.3
20260903101050 20 188 0.0 1.6 0.10 1.55 1.52 97 1013.4
20260903101035 20 160 1.6 1.6 0.10 1.55 1.52 97 1013.6
20260903100948 20 159 0.0 1.6 0.10 1.55 1.52 97 1013.5
20260903100848 20 184 0.0 1.6 0.10 1.55 1.52 97 1013.6
20260903100821 20 184 0.0 1.6 0.13 1.55 1.52 97 1013.8
20260903100816 20 184 0.0 1.6 0.13 1.55 1.52 97 1013.8
20260903100802 20 184 0.0 1.6 0.13 1.55 1.52 97 1013.8
20260903100519 20 184 0.0 1.6 0.13 1.55 1.52 97 1013.9
20260903100446 20 184 0.0 1.6 0.13 1.55 1.52 97 1013.8
20260903100346 20 184 0.0 1.6 0.13 1.55 1.52 97 1013.7
20260903100245 20 246 0.0 1.6 0.15 1.55 1.52 97 1013.7
20260903100213 20 246 0.0 1.6 0.15 1.55 1.52 97 1013.7
20260903100144 20 246 0.0 1.6 0.15 1.55 1.52 97 1013.7
20260903100044 20 246 0.0 1.6 0.15 1.55 1.52 97 1013.7
20260903100020 20 287 1.6 1.6 0.15 1.55 1.52 97 1013.8
20260903095943 20 302 0.0 1.6 0.15 1.55 1.52 97 1013.7
20260903095842 20 167 0.0 1.6 0.18 1.55 1.52 97 1013.6
20260903095713 20 167 0.0 1.6 0.18 1.55 1.52 97 1013.6
20260903095640 20 167 0.0 1.6 0.18 1.55 1.52 97 1013.6
20260903095539 20 167 0.0 1.6 0.18 1.55 1.52 97 1013.6
20260903095520 20 282 0.0 1.6 0.18 1.55 1.52 97 1013.8
20260903095439 20 282 0.0 1.6 0.18 1.55 1.52 97 1013.7
20260903095339 20 282 0.0 1.6 0.20 1.55 1.52 97 1013.8
20260903095238 20 282 0.0 1.6 0.20 1.55 1.52 97 1013.8
20260903095212 20 282 0.0 3.2 0.20 1.55 1.52 97 1013.8
20260903095152 20 281 0.0 11.3 0.20 1.55 1.52 97 1013.8
20260903095146 20 282 0.0 6.4 0.20 1.55 1.52 97 1013.8
20260903095020 20 281 0.0 11.3 0.23 1.55 1.52 97 1013.9
20260903094937 20 281 1.6 11.3 0.23 1.55 1.52 97 1013.8
20260903094835 20 281 1.6 11.3 0.23 1.55 1.52 97 1013.8
20260903094735 20 9 1.6 11.3 0.23 1.55 1.52 97 1013.8
20260903094712 20 13 1.6 11.3 0.23 1.55 1.52 97 1013.8
20260903094635 20 14 1.6 11.3 0.23 1.55 1.52 97 1013.6
20260903094534 20 14 1.6 11.3 0.23 1.55 1.52 97 1013.7
20260903094520 20 14 0.0 11.3 0.23 1.55 1.52 97 1013.8
20260903094513 20 14 1.6 11.3 0.23 1.55 1.52 97 1013.7
20260903094401 20 252 1.6 11.3 0.23 1.55 1.52 97 1013.4
20260903094355 20 257 1.6 11.3 0.23 1.55 1.52 97 1013.6
20260903094239 20 228 1.6 11.3 0.23 1.55 1.52 97 1013.5
20260903094031 20 188 1.6 11.3 0.23 1.55 1.52 97 1013.2
20260903094020 20 188 0.0 11.3 0.23 1.55 1.52 97 1013.2
20260903093930 20 178 1.6 11.3 0.23 1.55 1.52 97 1013.1
20260903093844 20 213 1.6 11.3 0.20 1.52 1.50 97 1013.0
20260903093838 20 190 1.6 11.3 0.23 1.55 1.52 97 1013.0
20260903093710 20 170 1.6 11.3 0.20 1.52 1.50 97 1013.0
20260903093629 20 167 1.6 11.3 0.20 1.52 1.50 97 1013.0
20260903093528 20 184 1.6 12.9 0.23 1.52 1.50 97 1012.9
20260903093519 20 145 1.6 12.9 0.23 1.52 1.50 97 1012.9
20260903093427 20 140 3.2 12.9 0.23 1.52 1.50 97 1012.8
20260903093341 20 193 3.2 12.9 0.23 1.52 1.50 97 1012.8
20260903093335 20 147 3.2 12.9 0.23 1.52 1.50 97 1012.7
20260903093209 20 132 3.2 12.9 0.23 1.52 1.50 97 1012.8
20260903093126 20 173 1.6 12.9 0.23 1.52 1.50 97 1012.8
20260903093050 20 202 3.2 12.9 0.23 1.52 1.50 97 1013.0
20260903093025 20 189 1.6 12.9 0.23 1.52 1.50 97 1012.8
20260903092938 20 159 1.6 12.9 0.25 1.55 1.50 97 1013.0
20260903092924 20 170 1.6 12.9 0.23 1.52 1.50 97 1012.9
20260903092824 20 163 1.6 12.9 0.23 1.55 1.50 97 1012.9
20260903092815 20 166 1.6 12.9 0.25 1.55 1.50 97 1013.0
20260903092622 20 145 0.0 12.9 0.25 1.55 1.50 97 1013.1
20260903092534 20 151 1.6 3.2 0.25 1.55 1.50 97 1013.6
20260903092522 20 162 0.0 3.2 0.25 1.55 1.50 97 1013.3
20260903092421 20 180 0.0 3.2 0.25 1.55 1.50 97 1013.5
20260903092320 20 178 0.0 3.2 0.23 1.52 1.50 97 1013.6
20260903092220 20 192 0.0 3.2 0.25 1.52 1.47 97 1013.7
20260903092208 20 179 0.0 3.2 0.25 1.52 1.47 97 1013.7
20260903092119 20 170 0.0 1.6 0.28 1.52 1.47 97 1013.8
20260903092021 20 170 0.0 1.6 0.28 1.52 1.47 97 1014.0
20260903092019 20 170 0.0 1.6 0.30 1.52 1.47 97 1013.8
20260903091918 20 170 0.0 1.6 0.30 1.52 1.47 97 1013.9
20260903091818 20 170 0.0 1.6 0.33 1.52 1.47 97 1013.9
20260903091707 20 170 0.0 1.6 0.30 1.50 1.45 97 1013.9
20260903091617 20 170 0.0 1.6 0.30 1.50 1.45 97 1013.9
20260903091520 20 170 0.0 1.6 0.30 1.50 1.45 97 1013.9
20260903091517 20 170 0.0 1.6 0.30 1.50 1.45 97 1013.9
20260903091431 20 166 0.0 1.6 0.33 1.50 1.45 97 1013.9
20260903091425 20 165 0.0 1.6 0.33 1.50 1.45 97 1013.8
20260903091235 20 191 0.0 1.6 0.30 1.47 1.42 97 1014.0
20260903091230 20 191 0.0 1.6 0.33 1.50 1.45 97 1014.0
20260903091223 20 191 0.0 1.6 0.30 1.47 1.45 97 1014.0
20260903091035 20 191 0.0 1.6 0.30 1.47 1.42 97 1014.2
20260903091029 20 191 0.0 1.6 0.30 1.47 1.42 97 1014.1
20260903091023 20 191 0.0 1.6 0.30 1.47 1.42 97 1014.2
20260903090814 20 191 0.0 1.6 0.28 1.45 1.42 97 1014.1
20260903090714 20 192 0.0 1.6 0.28 1.45 1.40 97 1014.1
20260903090701 20 192 0.0 1.6 0.28 1.45 1.40 97 1014.0
20260903090613 20 177 0.0 1.6 0.28 1.45 1.40 97 1014.0
20260903090525 20 207 0.0 1.6 0.30 1.45 1.40 97 1014.1
20260903090520 20 207 1.6 1.6 0.30 1.45 1.40 97 1014.2
20260903090312 20 207 0.0 1.6 0.30 1.45 1.40 97 1014.2
20260903090208 20 207 0.0 1.6 0.28 1.42 1.40 97 1014.2
20260903090201 20 207 0.0 1.6 0.28 1.42 1.40 97 1014.1
20260903090107 20 207 0.0 1.6 0.28 1.42 1.37 97 1014.1
20260903090019 20 207 0.0 1.6 0.28 1.42 1.37 97 1014.1
20260903090007 20 207 0.0 1.6 0.30 1.42 1.37 97 1014.1
20260903085905 20 207 0.0 1.6 0.28 1.40 1.37 97 1014.0
20260903085806 20 207 0.0 1.6 0.28 1.40 1.35 97 1013.9
20260903085708 20 207 0.0 1.6 0.28 1.40 1.35 97 1013.8
20260903085701 20 207 0.0 1.6 0.28 1.40 1.35 97 1013.8
20260903085604 20 207 0.0 1.6 0.28 1.40 1.35 97 1013.8
20260903085520 20 207 0.0 1.6 0.28 1.40 1.35 97 1014.0
20260903085504 20 207 0.0 1.6 0.28 1.40 1.35 97 1013.9
20260903085403 20 207 0.0 1.6 0.28 1.37 1.35 97 1013.9
20260903085305 20 207 0.0 3.2 0.28 1.37 1.32 97 1014.0
20260903085200 20 207 0.0 3.2 0.28 1.37 1.32 97 1014.0
20260903085102 20 207 0.0 3.2 0.28 1.37 1.32 97 1014.0
20260903085020 20 207 0.0 3.2 0.25 1.35 1.30 97 1014.2
20260903085001 20 207 0.0 3.2 0.25 1.35 1.30 97 1014.1
20260903084901 20 207 0.0 3.2 0.25 1.35 1.30 97 1014.0
20260903084829 20 207 0.0 3.2 0.25 1.35 1.30 97 1014.0
20260903084712 20 137 0.0 3.2 0.25 1.35 1.30 97 1013.9
20260903084550 20 136 0.0 3.2 0.25 1.35 1.30 97 1014.0
20260903084500 20 136 0.0 3.2 0.25 1.35 1.30 97 1013.9
20260903084359 20 137 0.0 3.2 0.25 1.35 1.30 97 1014.0
20260903084259 20 136 0.0 3.2 0.25 1.35 1.30 97 1014.1
20260903084205 20 136 0.0 3.2 0.25 1.35 1.30 97 1014.2
20260903084159 20 137 0.0 3.2 0.25 1.35 1.30 97 1014.2
20260903084056 20 121 0.0 3.2 0.25 1.35 1.30 97 1014.3
20260903084019 20 9 0.0 3.2 0.25 1.35 1.30 97 1014.5
20260903084017 20 9 0.0 3.2 0.28 1.35 1.30 97 1014.4
20260903083904 20 9 0.0 3.2 0.28 1.35 1.30 97 1014.4
20260903083654 20 9 0.0 3.2 0.30 1.35 1.30 97 1014.4
20260903083554 20 152 0.0 3.2 0.28 1.32 1.27 97 1014.4
20260903083519 20 152 0.0 3.2 0.28 1.32 1.27 97 1014.5
20260903083454 20 152 0.0 3.2 0.28 1.32 1.27 97 1014.4
20260903083408 20 188 0.0 1.6 0.28 1.32 1.27 97 1014.6
20260903083402 20 165 0.0 3.2 0.28 1.32 1.27 97 1014.5
20260903083153 20 213 0.0 1.6 0.28 1.32 1.27 97 1014.6
20260903083114 20 213 0.0 1.6 0.28 1.32 1.27 97 1014.6
20260903083020 20 213 0.0 3.2 0.28 1.32 1.27 97 1014.8
20260903083000 20 213 0.0 3.2 0.28 1.32 1.27 97 1014.7
20260903082751 20 213 0.0 8.0 0.25 1.30 1.24 97 1014.8
20260903082650 20 213 0.0 8.0 0.25 1.30 1.24 97 1014.9
20260903082550 20 213 0.0 8.0 0.25 1.30 1.24 97 1014.9
20260903082520 20 213 0.0 8.0 0.25 1.30 1.24 97 1015.1
20260903082449 20 213 1.6 8.0 0.25 1.30 1.24 97 1015.0
20260903082349 20 217 1.6 8.0 0.25 1.30 1.24 97 1015.1
20260903082308 20 213 1.6 8.0 0.23 1.27 1.22 97 1015.4
20260903082306 20 211 1.6 8.0 0.23 1.27 1.24 97 1015.2
20260903082255 20 211 1.6 8.0 0.23 1.27 1.22 97 1015.4
20260903082047 20 213 1.6 8.0 0.20 1.24 1.19 97 1015.6
20260903082020 20 240 1.6 8.0 0.20 1.24 1.19 97 1015.8
20260903081946 20 252 1.6 8.0 0.18 1.22 1.19 97 1015.7
20260903081925 20 196 1.6 4.8 0.15 1.19 1.14 97 1016.0
20260903081846 20 250 1.6 8.0 0.15 1.19 1.17 97 1015.9
20260903081800 20 199 1.6 4.8 0.15 1.19 1.14 97 1016.1
20260903081645 20 196 1.6 4.8 0.15 1.19 1.14 97 1016.0
20260903081544 20 196 1.6 4.8 0.15 1.19 1.14 97 1016.0
20260903081520 20 195 1.6 4.8 0.15 1.19 1.14 97 1015.8
20260903081444 20 195 1.6 4.8 0.15 1.19 1.14 97 1015.7
20260903081344 20 195 1.6 4.8 0.13 1.17 1.12 97 1015.6
20260903081242 20 194 0.0 4.8 0.13 1.17 1.12 97 1015.3
20260903081142 20 194 0.0 4.8 0.13 1.17 1.12 97 1015.0
20260903081041 20 194 0.0 4.8 0.13 1.17 1.12 97 1014.8
20260903081020 20 181 1.6 4.8 0.13 1.17 1.12 97 1014.8
20260903080941 20 181 0.0 4.8 0.13 1.17 1.12 97 1014.7
20260903080841 20 169 0.0 3.2 0.13 1.17 1.12 97 1014.6
20260903080740 20 51 0.0 1.6 0.13 1.17 1.12 97 1014.7
20260903080639 20 51 0.0 3.2 0.13 1.17 1.12 97 1014.6
20260903080539 20 51 0.0 3.2 0.10 1.14 1.09 97 1014.7
20260903080520 20 51 0.0 3.2 0.10 1.14 1.09 97 1014.8
20260903080438 20 51 0.0 3.2 0.10 1.14 1.09 97 1014.7
20260903080337 20 95 0.0 3.2 0.10 1.14 1.09 97 1014.6
20260903080237 20 95 0.0 3.2 0.10 1.14 1.09 97 1014.7
20260903080137 20 95 0.0 6.4 0.10 1.14 1.09 97 1014.7
20260903080036 20 95 0.0 6.4 0.08 1.12 1.09 97 1014.8
20260903080021 20 95 0.0 6.4 0.10 1.14 1.09 97 1014.8
20260903075934 20 95 0.0 6.4 0.08 1.12 1.07 97 1014.7
20260903075848 20 95 0.0 6.4 0.08 1.12 1.07 97 1014.8
20260903075843 20 95 0.0 6.4 0.08 1.12 1.07 97 1014.7
20260903075651 20 96 0.0 6.4 0.08 1.12 1.07 97 1015.1
20260903075633 20 350 0.0 6.4 0.08 1.12 1.07 97 1015.1
20260903075533 20 292 0.0 6.4 0.08 1.12 1.07 97 1015.4
20260903075520 20 292 0.0 6.4 0.08 1.12 1.07 97 1015.6
20260903075445 20 292 0.0 6.4 0.05 1.09 1.04 97 1015.6
20260903075440 20 292 0.0 6.4 0.05 1.09 1.07 97 1015.5
20260903075246 20 293 0.0 6.4 0.05 1.09 1.04 97 1015.5
20260903075238 20 312 0.0 6.4 0.05 1.09 1.04 97 1015.5
20260903075031 20 312 0.0 6.4 0.05 1.09 1.04 97 1015.4
20260903075020 20 312 0.0 6.4 0.05 1.09 1.04 97 1015.5
20260903074930 20 309 0.0 6.4 0.05 1.09 1.04 97 1015.4
20260903074830 20 309 0.0 6.4 0.05 1.09 1.04 97 1015.4
20260903074729 20 308 0.0 6.4 0.05 1.09 1.04 97 1015.4
20260903074657 20 252 0.0 1.6 0.05 1.09 1.04 97 1015.4
20260903074650 20 252 0.0 0.0 0.05 1.09 1.04 97 1015.4
20260903074537 20 252 0.0 0.0 0.05 1.09 1.04 97 1015.3
20260903074520 20 252 0.0 0.0 0.05 1.09 1.04 97 1015.3
20260903074354 20 186 0.0 0.0 0.05 1.09 1.04 97 1015.0
20260903074240 20 186 0.0 0.0 0.05 1.09 1.04 97 1015.0
20260903074232 20 186 0.0 0.0 0.05 1.09 1.04 97 1015.0
20260903074025 20 186 0.0 0.0 0.05 1.09 1.04 97 1015.0
20260903074020 20 186 0.0 0.0 0.05 1.09 1.04 97 1015.1
20260903073926 20 186 0.0 0.0 0.03 1.07 1.04 97 1015.0
20260903073836 20 186 0.0 0.0 0.00 1.04 1.02 97 1015.0
20260903073831 20 186 0.0 0.0 0.03 1.07 1.02 97 1015.0
20260903073621 20 186 0.0 0.0 0.00 1.04 0.99 97 1015.0
20260903073604 20 186 0.0 0.0 0.00 1.04 0.99 97 1015.1
20260903073535 20 186 0.0 0.0 0.00 1.04 0.99 97 1015.0
20260903073530 20 186 0.0 0.0 0.00 1.04 0.99 97 1014.9
20260903073319 20 186 0.0 0.0 0.00 1.04 0.99 97 1014.9
20260903073219 20 186 0.0 0.0 0.00 1.04 0.99 97 1014.9
20260903073152 20 186 0.0 0.0 0.00 1.04 0.99 97 1014.8
20260903073118 20 186 0.0 0.0 0.00 1.04 0.99 97 1014.8
20260903073020 20 186 0.0 0.0 0.00 1.04 0.99 97 1014.7
20260903073018 20 186 0.0 0.0 0.00 1.04 0.99 97 1014.7
20260903072923 20 186 0.0 0.0 0.00 1.04 0.99 97 1014.4
20260903072917 20 186 0.0 0.0 0.00 1.04 0.99 97 1014.6
20260903072817 20 186 0.0 0.0 0.00 1.04 0.99 97 1014.4
20260903072805 20 186 0.0 0.0 0.00 1.04 0.99 97 1014.4
20260903072651 20 186 0.0 0.0 0.00 1.04 0.99 97 1014.4
20260903072538 20 186 0.0 0.0 0.00 1.04 0.99 97 1014.5
20260903072534 20 186 0.0 0.0 0.03 1.04 0.99 97 1014.6
20260903072529 20 186 0.0 0.0 0.00 1.04 0.99 97 1014.5
20260903072519 20 186 0.0 0.0 0.00 1.04 0.99 97 1014.6
20260903072415 20 186 0.0 0.0 0.00 1.04 0.99 97 1014.5
20260903072406 20 186 0.0 0.0 0.00 1.04 0.99 97 1014.6
20260903072145 20 186 0.0 0.0 0.03 1.04 0.99 97 1014.5
20260903072138 20 186 0.0 0.0 0.00 1.04 0.99 97 1014.5
20260903072050 20 186 0.0 0.0 0.00 1.04 0.99 97 1014.6
20260903071710 20 186 0.0 0.0 0.03 1.04 0.99 97 1014.5
20260903071646 20 186 0.0 0.0 0.03 1.04 0.99 97 1014.5
20260903071610 20 186 0.0 0.0 0.03 1.04 0.99 97 1014.5
20260903071519 20 186 0.0 0.0 0.03 1.04 0.99 97 1014.6
20260903071510 20 186 0.0 0.0 0.03 1.04 0.99 97 1014.5
20260903071409 20 186 0.0 0.0 0.03 1.04 0.99 97 1014.5
20260903071323 20 186 0.0 0.0 0.08 1.04 0.99 97 1014.4
20260903071318 20 186 0.0 0.0 0.05 1.04 0.99 97 1014.5
20260903071143 20 186 0.0 0.0 0.08 1.04 0.99 97 1014.5
20260903071108 20 186 0.0 0.0 0.08 1.04 0.99 97 1014.5
20260903071020 20 186 0.0 0.0 0.10 1.04 0.99 97 1014.5
20260903071014 20 186 0.0 0.0 0.10 1.04 0.99 97 1014.5
20260903070805 20 186 0.0 0.0 0.10 1.04 0.99 97 1014.5
20260903070705 20 186 0.0 0.0 0.10 1.04 0.99 97 1014.4
20260903070643 20 186 0.0 0.0 0.10 1.04 0.99 97 1014.4
20260903070604 20 186 0.0 0.0 0.10 1.04 0.99 97 1014.4
20260903070520 20 186 0.0 0.0 0.13 1.04 0.99 97 1014.5
20260903070503 20 186 0.0 0.0 0.13 1.04 0.99 97 1014.4
20260903070403 20 186 0.0 0.0 0.13 1.04 0.99 97 1014.4
20260903070303 20 186 0.0 0.0 0.13 1.04 0.99 97 1014.4
20260903070142 20 186 0.0 0.0 0.13 1.04 0.99 97 1014.4
20260903070019 20 186 0.0 0.0 0.15 1.04 0.99 97 1014.5
20260903070000 20 186 0.0 0.0 0.15 1.04 0.99 97 1014.4
20260903065859 20 186 0.0 0.0 0.15 1.04 0.99 97 1014.4
20260903065758 20 186 0.0 0.0 0.15 1.04 0.99 96 1014.4
20260903065640 20 186 0.0 0.0 0.18 1.04 0.99 96 1014.3
20260903065557 20 186 0.0 0.0 0.18 1.04 0.99 96 1014.4
20260903065520 20 186 0.0 0.0 0.18 1.04 0.99 96 1014.5
20260903065456 20 186 0.0 0.0 0.18 1.04 0.99 96 1014.4
20260903065356 20 186 0.0 0.0 0.18 1.04 0.99 96 1014.5
20260903065255 20 186 0.0 0.0 0.18 1.04 0.99 96 1014.5
20260903065141 20 186 0.0 0.0 0.20 1.04 0.99 96 1014.5
20260903065053 20 186 0.0 0.0 0.23 1.04 0.99 96 1014.4
20260903065035 20 186 0.0 0.0 0.23 1.04 0.99 96 1014.5
20260903064953 20 186 0.0 0.0 0.28 1.04 0.99 96 1014.4
20260903064853 20 186 0.0 0.0 0.28 1.04 0.99 96 1014.4
20260903064808 20 186 0.0 0.0 0.43 1.04 0.99 96 1014.3
20260903064803 20 186 0.0 0.0 0.36 1.04 0.99 96 1014.3
20260903064639 20 186 0.0 0.0 0.43 1.04 0.99 96 1014.3
20260903064551 20 186 0.0 0.0 0.56 1.04 0.99 96 1014.3
20260903064535 20 186 0.0 0.0 0.61 1.04 0.99 96 1014.3
20260903064451 20 186 0.0 0.0 0.66 1.04 0.99 96 1014.2
20260903064350 20 186 0.0 0.0 0.74 1.04 0.99 96 1014.2
20260903064248 20 186 0.0 0.0 0.79 1.04 0.99 96 1014.2
20260903064138 20 186 0.0 0.0 0.81 1.04 0.99 96 1014.2
20260903064046 20 186 0.0 0.0 0.84 1.04 0.99 96 1014.3
20260903064020 20 186 0.0 0.0 0.81 1.04 0.99 96 1014.4
20260903063945 20 186 0.0 0.0 0.84 1.04 0.99 96 1014.3
20260903063845 20 186 0.0 0.0 0.86 1.04 0.99 96 1014.4
20260903063744 20 186 0.0 0.0 0.86 1.04 0.99 96 1014.3
20260903063643 20 186 0.0 0.0 0.86 1.04 0.99 96 1014.3
20260903063637 20 186 0.0 0.0 0.89 1.04 0.99 96 1014.3
20260903063557 20 186 0.0 0.0 0.89 1.04 0.99 96 1014.3
20260903063552 20 186 0.0 0.0 0.89 1.04 0.99 96 1014.3
20260903063520 20 186 0.0 0.0 0.89 1.04 0.99 96 1014.4
20260903063342 20 186 0.0 0.0 0.89 1.04 0.99 96 1014.3
20260903063242 20 186 0.0 0.0 0.91 1.04 0.99 96 1014.4
20260903063136 20 186 0.0 0.0 0.91 1.04 0.99 96 1014.4
20260903063041 20 186 0.0 0.0 0.91 1.04 0.99 96 1014.4
20260903063020 20 186 0.0 0.0 0.91 1.04 0.99 96 1014.6
20260903062940 20 186 0.0 0.0 0.91 1.04 0.99 96 1014.5
20260903062840 20 186 0.0 0.0 0.94 1.04 0.99 96 1014.4
20260903062757 20 186 0.0 0.0 0.97 1.04 0.99 96 1014.3
20260903062751 20 186 0.0 0.0 0.94 1.04 0.99 96 1014.4
20260903062635 20 186 0.0 0.0 0.97 1.04 0.99 96 1014.3
20260903062538 20 186 0.0 0.0 0.97 1.04 0.99 96 1014.4
20260903062520 20 186 0.0 0.0 0.97 1.04 0.99 96 1014.5
20260903062438 20 186 0.0 0.0 0.97 1.04 0.99 96 1014.4
20260903062337 20 186 0.0 0.0 0.97 1.04 0.99 96 1014.5
20260903062237 20 186 0.0 0.0 0.97 1.04 0.99 96 1014.6
20260903062133 20 186 0.0 0.0 0.97 1.04 0.99 96 1014.6
20260903062037 20 186 0.0 0.0 0.97 1.04 0.99 96 1014.7
20260903062020 20 186 0.0 0.0 0.97 1.04 0.99 96 1014.8